Time,TemperatureF,DewpointF,PressureIn,WindDirection,WindDirectionDegrees,WindSpeedMPH,WindSpeedGustMPH,Humidity,HourlyPrecipIn,Conditions,Clouds,dailyrainin,SoftwareType,DateUTC
2013-02-05 00:00:00,19.8,9.9,29.78,ENE,68,0.0,0.0,65,0.00,CLR,,0.00,WeatherDisplay:10.37,2013-02-05 05:00:00,
2013-02-05 00:05:00,19.8,9.9,29.78,NNE,22,0.0,0.0,65,0.00,CLR,,0.00,WeatherDisplay:10.37,2013-02-05 05:05:00,
2013-02-05 00:10:00,19.8,10.2,29.81,NNE,22,0.0,0.0,66,0.00,CLR,,0.00,WeatherDisplay:10.37,2013-02-05 05:10:00,
2013-02-05 00:15:00,19.8,10.2,29.81,NE,45,0.0,0.0,66,0.00,CLR,,0.00,WeatherDisplay:10.37,2013-02-05 05:15:00,
2013-02-05 00:20:00,19.6,10.1,29.81,NE,45,0.0,0.0,66,0.00,CLR,,0.00,WeatherDisplay:10.37,2013-02-05 05:20:00,
2013-02-05 00:21:00,19.6,10.1,29.81,NE,45,0.0,0.0,66,0.00,CLR,,0.00,WeatherDisplay:10.37,2013-02-05 05:21:00,
2013-02-05 00:25:00,19.6,10.1,29.78,North,0,0.0,0.0,66,0.00,CLR,,0.00,WeatherDisplay:10.37,2013-02-05 05:25:00,
2013-02-05 00:26:00,19.6,10.1,29.78,NE,45,0.0,0.0,66,0.00,CLR,,0.00,WeatherDisplay:10.37,2013-02-05 05:26:00,
2013-02-05 00:30:00,19.6,10.4,29.78,NE,45,0.0,0.0,67,0.00,CLR,,0.00,WeatherDisplay:10.37,2013-02-05 05:30:00,
2013-02-05 00:31:00,19.6,10.4,29.78,NNE,22,0.0,0.0,67,0.00,CLR,,0.00,WeatherDisplay:10.37,2013-02-05 05:31:00,
2013-02-05 00:35:00,19.6,10.4,29.78,NNE,22,0.0,0.0,67,0.00,CLR,,0.00,WeatherDisplay:10.37,2013-02-05 05:35:00,
2013-02-05 00:36:00,19.6,10.4,29.78,NNE,22,0.0,0.0,67,0.00,CLR,,0.00,WeatherDisplay:10.37,2013-02-05 05:36:00,
2013-02-05 00:40:00,19.6,10.4,29.78,NNE,22,0.0,0.0,67,0.00,CLR,,0.00,WeatherDisplay:10.37,2013-02-05 05:40:00,
2013-02-05 00:41:00,19.6,10.4,29.78,NE,45,0.0,0.0,67,0.00,CLR,,0.00,WeatherDisplay:10.37,2013-02-05 05:41:00,
2013-02-05 00:45:00,19.4,10.6,29.78,NE,45,0.0,0.0,68,0.00,CLR,,0.00,WeatherDisplay:10.37,2013-02-05 05:45:00,
2013-02-05 00:46:00,19.4,10.6,29.78,NNE,22,0.0,0.0,68,0.00,CLR,,0.00,WeatherDisplay:10.37,2013-02-05 05:46:00,
2013-02-05 00:50:00,19.4,10.6,29.78,NNE,22,0.0,0.0,68,0.00,CLR,,0.00,WeatherDisplay:10.37,2013-02-05 05:50:00,
2013-02-05 00:51:00,19.4,10.6,29.78,ENE,68,0.0,0.0,68,0.00,CLR,,0.00,WeatherDisplay:10.37,2013-02-05 05:51:00,
2013-02-05 00:52:00,19.4,10.6,29.78,NE,45,0.0,0.0,68,0.00,CLR,,0.00,WeatherDisplay:10.37,2013-02-05 05:52:00,
2013-02-05 00:55:00,19.4,10.9,29.78,NE,45,0.0,0.0,69,0.00,CLR,,0.00,WeatherDisplay:10.37,2013-02-05 05:55:00,
2013-02-05 00:56:00,19.4,10.9,29.78,ENE,68,0.0,0.0,69,0.00,CLR,,0.00,WeatherDisplay:10.37,2013-02-05 05:56:00,
2013-02-05 00:57:00,19.4,10.9,29.78,NNE,22,0.0,0.0,69,0.00,CLR,,0.00,WeatherDisplay:10.37,2013-02-05 05:57:00,
2013-02-05 01:00:00,19.2,11.0,29.78,NNE,22,0.0,0.0,70,0.00,CLR,,0.00,WeatherDisplay:10.37,2013-02-05 06:00:00,
2013-02-05 01:01:00,19.2,11.0,29.78,NNE,22,0.0,0.0,70,0.00,CLR,,0.00,WeatherDisplay:10.37,2013-02-05 06:01:00,
2013-02-05 01:02:00,19.2,11.0,29.78,NNE,22,0.0,0.0,70,0.00,CLR,,0.00,WeatherDisplay:10.37,2013-02-05 06:02:00,
2013-02-05 01:05:00,19.2,11.0,29.78,NNE,22,0.0,0.0,70,0.00,CLR,,0.00,WeatherDisplay:10.37,2013-02-05 06:05:00,
2013-02-05 01:06:00,19.2,11.0,29.78,NNE,22,0.0,0.0,70,0.00,CLR,,0.00,WeatherDisplay:10.37,2013-02-05 06:06:00,
2013-02-05 01:07:00,19.2,11.0,29.78,NNE,22,0.0,0.0,70,0.00,CLR,,0.00,WeatherDisplay:10.37,2013-02-05 06:07:00,
2013-02-05 01:10:00,19.2,11.4,29.78,ENE,68,0.0,0.0,71,0.00,CLR,,0.00,WeatherDisplay:10.37,2013-02-05 06:10:00,
2013-02-05 01:11:00,19.2,11.4,29.78,ENE,68,0.0,0.0,71,0.00,CLR,,0.00,WeatherDisplay:10.37,2013-02-05 06:11:00,
2013-02-05 01:12:00,19.2,11.4,29.78,ENE,68,0.0,0.0,71,0.00,CLR,,0.00,WeatherDisplay:10.37,2013-02-05 06:12:00,
2013-02-05 01:16:00,19.0,11.5,29.78,NE,45,0.0,0.0,72,0.00,CLR,,0.00,WeatherDisplay:10.37,2013-02-05 06:16:00,
2013-02-05 01:17:00,19.0,11.5,29.78,ENE,68,0.0,0.0,72,0.00,CLR,,0.00,WeatherDisplay:10.37,2013-02-05 06:17:00,
2013-02-05 01:21:00,19.0,11.8,29.78,NNE,22,0.0,0.0,73,0.00,CLR,,0.00,WeatherDisplay:10.37,2013-02-05 06:21:00,
2013-02-05 01:22:00,19.0,11.8,29.75,ENE,68,0.0,0.0,73,0.00,CLR,,0.00,WeatherDisplay:10.37,2013-02-05 06:22:00,
2013-02-05 01:26:00,18.9,11.9,29.75,ENE,68,0.0,0.0,74,0.00,CLR,,0.00,WeatherDisplay:10.37,2013-02-05 06:26:00,
2013-02-05 01:27:00,18.9,11.9,29.75,ESE,112,0.0,0.0,74,0.00,CLR,,0.00,WeatherDisplay:10.37,2013-02-05 06:27:00,
2013-02-05 01:28:00,18.9,12.2,29.75,East,90,0.0,0.0,75,0.00,CLR,,0.00,WeatherDisplay:10.37,2013-02-05 06:28:00,
2013-02-05 01:31:00,18.9,12.2,29.75,NNE,22,0.0,0.0,75,0.00,CLR,,0.00,WeatherDisplay:10.37,2013-02-05 06:31:00,
2013-02-05 01:32:00,18.9,12.2,29.75,ENE,68,0.0,0.0,75,0.00,CLR,,0.00,WeatherDisplay:10.37,2013-02-05 06:32:00,
2013-02-05 01:33:00,18.9,12.2,29.75,ENE,68,0.0,0.0,75,0.00,CLR,,0.00,WeatherDisplay:10.37,2013-02-05 06:33:00,
2013-02-05 01:34:00,18.7,12.4,29.75,East,90,0.0,0.0,76,0.00,CLR,,0.00,WeatherDisplay:10.37,2013-02-05 06:34:00,
2013-02-05 01:36:00,18.7,12.4,29.75,ENE,68,0.0,0.0,76,0.00,CLR,,0.00,WeatherDisplay:10.37,2013-02-05 06:36:00,
2013-02-05 01:37:00,18.7,12.4,29.75,NNE,22,0.0,0.0,76,0.00,CLR,,0.00,WeatherDisplay:10.37,2013-02-05 06:37:00,
2013-02-05 01:38:00,18.7,12.4,29.75,NNE,22,0.0,0.0,76,0.00,CLR,,0.00,WeatherDisplay:10.37,2013-02-05 06:38:00,
2013-02-05 01:39:00,18.7,12.4,29.75,NNE,22,0.0,0.0,76,0.00,CLR,,0.00,WeatherDisplay:10.37,2013-02-05 06:39:00,
2013-02-05 01:41:00,18.7,12.7,29.75,NE,45,0.0,0.0,77,0.00,CLR,,0.00,WeatherDisplay:10.37,2013-02-05 06:41:00,
2013-02-05 01:42:00,18.7,12.7,29.75,NNE,22,0.0,0.0,77,0.00,CLR,,0.00,WeatherDisplay:10.37,2013-02-05 06:42:00,
2013-02-05 01:43:00,18.7,13.0,29.75,NNE,22,0.0,0.0,78,0.00,CLR,,0.00,WeatherDisplay:10.37,2013-02-05 06:43:00,
2013-02-05 01:44:00,18.7,13.0,29.75,North,0,0.0,0.0,78,0.00,CLR,,0.00,WeatherDisplay:10.37,2013-02-05 06:44:00,
2013-02-05 01:46:00,18.7,13.2,29.75,ENE,68,0.0,0.0,79,0.00,CLR,,0.00,WeatherDisplay:10.37,2013-02-05 06:46:00,
2013-02-05 01:47:00,18.7,13.2,29.75,ENE,68,0.0,0.0,79,0.00,CLR,,0.00,WeatherDisplay:10.37,2013-02-05 06:47:00,
2013-02-05 01:48:00,18.7,13.2,29.75,ENE,68,0.0,0.0,79,0.00,CLR,,0.00,WeatherDisplay:10.37,2013-02-05 06:48:00,
2013-02-05 01:49:00,18.7,13.5,29.75,North,0,0.0,0.0,80,0.00,CLR,,0.00,WeatherDisplay:10.37,2013-02-05 06:49:00,
2013-02-05 01:51:00,18.5,13.4,29.78,ENE,68,0.0,0.0,80,0.00,CLR,,0.00,WeatherDisplay:10.37,2013-02-05 06:51:00,
2013-02-05 01:52:00,18.5,13.4,29.78,NE,45,0.0,0.0,80,0.00,CLR,,0.00,WeatherDisplay:10.37,2013-02-05 06:52:00,
2013-02-05 01:54:00,18.5,13.4,29.78,NNE,22,0.0,0.0,80,0.00,CLR,,0.00,WeatherDisplay:10.37,2013-02-05 06:54:00,
2013-02-05 01:57:00,18.7,13.8,29.78,ESE,112,0.0,0.0,81,0.00,CLR,,0.00,WeatherDisplay:10.37,2013-02-05 06:57:00,
2013-02-05 01:59:00,18.5,13.6,29.78,ESE,112,0.0,0.0,81,0.00,CLR,,0.00,WeatherDisplay:10.37,2013-02-05 06:59:00,
2013-02-05 02:02:00,18.5,13.6,29.78,ENE,68,0.0,0.0,81,0.00,CLR,,0.00,WeatherDisplay:10.37,2013-02-05 07:02:00,
2013-02-05 02:04:00,18.5,13.6,29.78,NE,45,0.0,0.0,81,0.00,CLR,,0.00,WeatherDisplay:10.37,2013-02-05 07:04:00,
2013-02-05 02:07:00,18.5,13.6,29.78,ENE,68,0.0,0.0,81,0.00,CLR,,0.00,WeatherDisplay:10.37,2013-02-05 07:07:00,
2013-02-05 02:08:00,18.5,13.6,29.78,ENE,68,0.0,0.0,81,0.00,CLR,,0.00,WeatherDisplay:10.37,2013-02-05 07:08:00,
2013-02-05 02:09:00,18.5,13.6,29.78,ESE,112,0.0,0.0,81,0.00,CLR,,0.00,WeatherDisplay:10.37,2013-02-05 07:09:00,
2013-02-05 02:12:00,18.5,13.9,29.78,ENE,68,0.0,0.0,82,0.00,CLR,,0.00,WeatherDisplay:10.37,2013-02-05 07:12:00,
2013-02-05 02:13:00,18.5,13.9,29.78,NNE,22,0.0,0.0,82,0.00,CLR,,0.00,WeatherDisplay:10.37,2013-02-05 07:13:00,
2013-02-05 02:14:00,18.5,13.9,29.78,NNE,22,0.0,0.0,82,0.00,CLR,,0.00,WeatherDisplay:10.37,2013-02-05 07:14:00,
2013-02-05 02:17:00,18.5,13.9,29.78,ENE,68,0.0,0.0,82,0.00,CLR,,0.00,WeatherDisplay:10.37,2013-02-05 07:17:00,
2013-02-05 02:18:00,18.5,13.9,29.78,ESE,112,0.0,0.0,82,0.00,CLR,,0.00,WeatherDisplay:10.37,2013-02-05 07:18:00,
2013-02-05 02:19:00,18.5,13.9,29.78,ESE,112,0.0,0.0,82,0.00,CLR,,0.00,WeatherDisplay:10.37,2013-02-05 07:19:00,
2013-02-05 02:20:00,18.5,14.2,29.78,ESE,112,0.0,0.0,83,0.00,CLR,,0.00,WeatherDisplay:10.37,2013-02-05 07:20:00,
2013-02-05 02:22:00,18.5,14.2,29.78,ESE,112,0.0,0.0,83,0.00,CLR,,0.00,WeatherDisplay:10.37,2013-02-05 07:22:00,
2013-02-05 02:24:00,18.5,14.5,29.78,ESE,112,0.0,0.0,84,0.00,CLR,,0.00,WeatherDisplay:10.37,2013-02-05 07:24:00,
2013-02-05 02:25:00,18.5,14.7,29.78,ESE,112,0.0,0.0,85,0.00,CLR,,0.00,WeatherDisplay:10.37,2013-02-05 07:25:00,
2013-02-05 02:27:00,18.5,14.7,29.78,ESE,112,0.0,0.0,85,0.00,CLR,,0.00,WeatherDisplay:10.37,2013-02-05 07:27:00,
2013-02-05 02:29:00,18.5,15.0,29.78,ESE,112,0.0,0.0,86,0.00,CLR,,0.00,WeatherDisplay:10.37,2013-02-05 07:29:00,
2013-02-05 02:30:00,18.5,15.0,29.78,ESE,112,0.0,0.0,86,0.00,CLR,,0.00,WeatherDisplay:10.37,2013-02-05 07:30:00,
2013-02-05 02:32:00,18.5,15.3,29.78,East,90,0.0,0.0,87,0.00,CLR,,0.00,WeatherDisplay:10.37,2013-02-05 07:32:00,
2013-02-05 02:34:00,18.5,15.3,29.78,ESE,112,0.0,0.0,87,0.00,CLR,,0.00,WeatherDisplay:10.37,2013-02-05 07:34:00,
2013-02-05 02:35:00,18.5,15.3,29.78,ESE,112,0.0,0.0,87,0.00,CLR,,0.00,WeatherDisplay:10.37,2013-02-05 07:35:00,
2013-02-05 02:37:00,18.5,15.3,29.78,ESE,112,0.0,0.0,87,0.00,CLR,,0.00,WeatherDisplay:10.37,2013-02-05 07:37:00,
2013-02-05 02:39:00,18.5,15.3,29.78,SSE,158,0.0,0.0,87,0.00,CLR,,0.00,WeatherDisplay:10.37,2013-02-05 07:39:00,
2013-02-05 02:40:00,18.7,15.5,29.78,ESE,112,0.0,0.0,87,0.00,CLR,,0.00,WeatherDisplay:10.37,2013-02-05 07:40:00,
2013-02-05 02:42:00,18.7,15.5,29.78,ESE,112,0.0,0.0,87,0.00,CLR,,0.00,WeatherDisplay:10.37,2013-02-05 07:42:00,
2013-02-05 02:44:00,18.7,15.5,29.78,SSE,158,0.0,0.0,87,0.00,CLR,,0.00,WeatherDisplay:10.37,2013-02-05 07:44:00,
2013-02-05 02:45:00,18.7,15.5,29.78,ESE,112,0.0,0.0,87,0.00,CLR,,0.00,WeatherDisplay:10.37,2013-02-05 07:45:00,
2013-02-05 02:47:00,18.7,15.5,29.78,ESE,112,0.0,0.0,87,0.00,CLR,,0.00,WeatherDisplay:10.37,2013-02-05 07:47:00,
2013-02-05 02:49:00,18.7,15.5,29.78,ESE,112,0.0,0.0,87,0.00,CLR,,0.00,WeatherDisplay:10.37,2013-02-05 07:49:00,
2013-02-05 02:50:00,18.7,15.7,29.78,SE,135,0.0,0.0,88,0.00,CLR,,0.00,WeatherDisplay:10.37,2013-02-05 07:50:00,
2013-02-05 02:51:00,18.7,15.7,29.78,ESE,112,0.0,0.0,88,0.00,CLR,,0.00,WeatherDisplay:10.37,2013-02-05 07:51:00,
2013-02-05 02:53:00,18.7,15.7,29.78,SE,135,0.0,0.0,88,0.00,CLR,,0.00,WeatherDisplay:10.37,2013-02-05 07:53:00,
2013-02-05 02:54:00,18.7,15.7,29.78,SE,135,0.0,0.0,88,0.00,CLR,,0.00,WeatherDisplay:10.37,2013-02-05 07:54:00,
2013-02-05 02:55:00,18.7,15.7,29.78,SSE,158,0.0,0.0,88,0.00,CLR,,0.00,WeatherDisplay:10.37,2013-02-05 07:55:00,
2013-02-05 02:56:00,18.7,15.7,29.78,ESE,112,0.0,0.0,88,0.00,CLR,,0.00,WeatherDisplay:10.37,2013-02-05 07:56:00,
2013-02-05 02:58:00,18.7,15.7,29.78,ESE,112,0.0,0.0,88,0.00,CLR,,0.00,WeatherDisplay:10.37,2013-02-05 07:58:00,
2013-02-05 02:59:00,18.7,15.7,29.78,ESE,112,0.0,0.0,88,0.00,CLR,,0.00,WeatherDisplay:10.37,2013-02-05 07:59:00,
2013-02-05 03:00:00,18.7,16.0,29.78,SSE,158,0.0,0.0,89,0.00,CLR,,0.00,WeatherDisplay:10.37,2013-02-05 08:00:00,
2013-02-05 03:01:00,18.7,16.0,29.78,ESE,112,0.0,0.0,89,0.00,CLR,,0.00,WeatherDisplay:10.37,2013-02-05 08:01:00,
2013-02-05 03:03:00,18.7,15.7,29.78,SE,135,0.0,0.0,88,0.00,CLR,,0.00,WeatherDisplay:10.37,2013-02-05 08:03:00,
2013-02-05 03:04:00,18.7,15.7,29.78,SSE,158,0.0,0.0,88,0.00,CLR,,0.00,WeatherDisplay:10.37,2013-02-05 08:04:00,
2013-02-05 03:05:00,18.7,15.7,29.78,ESE,112,0.0,0.0,88,0.00,CLR,,0.00,WeatherDisplay:10.37,2013-02-05 08:05:00,
2013-02-05 03:06:00,18.7,15.7,29.78,ESE,112,0.0,0.0,88,0.00,CLR,,0.00,WeatherDisplay:10.37,2013-02-05 08:06:00,
2013-02-05 03:08:00,18.7,15.7,29.78,ESE,112,0.0,0.0,88,0.00,CLR,,0.00,WeatherDisplay:10.37,2013-02-05 08:08:00,
2013-02-05 03:09:00,18.7,15.7,29.78,ESE,112,0.0,0.0,88,0.00,CLR,,0.00,WeatherDisplay:10.37,2013-02-05 08:09:00,
2013-02-05 03:10:00,18.7,15.7,29.78,SE,135,0.0,0.0,88,0.00,CLR,,0.00,WeatherDisplay:10.37,2013-02-05 08:10:00,
2013-02-05 03:11:00,18.7,15.7,29.78,SSE,158,0.0,0.0,88,0.00,CLR,,0.00,WeatherDisplay:10.37,2013-02-05 08:11:00,
2013-02-05 03:14:00,18.5,15.5,29.78,ESE,112,0.0,0.0,88,0.00,CLR,,0.00,WeatherDisplay:10.37,2013-02-05 08:14:00,
2013-02-05 03:15:00,18.5,15.5,29.78,SSE,158,0.0,0.0,88,0.00,CLR,,0.00,WeatherDisplay:10.37,2013-02-05 08:15:00,
2013-02-05 03:16:00,18.5,15.3,29.78,SSE,158,0.0,0.0,87,0.00,CLR,,0.00,WeatherDisplay:10.37,2013-02-05 08:16:00,
2013-02-05 03:19:00,18.5,15.3,29.78,SE,135,0.0,0.0,87,0.00,CLR,,0.00,WeatherDisplay:10.37,2013-02-05 08:19:00,
2013-02-05 03:20:00,18.5,15.3,29.78,ESE,112,0.0,0.0,87,0.00,CLR,,0.00,WeatherDisplay:10.37,2013-02-05 08:20:00,
2013-02-05 03:21:00,18.5,15.3,29.78,ESE,112,0.0,0.0,87,0.00,CLR,,0.00,WeatherDisplay:10.37,2013-02-05 08:21:00,
2013-02-05 03:24:00,18.3,15.1,29.78,ESE,112,0.0,0.0,87,0.00,CLR,,0.00,WeatherDisplay:10.37,2013-02-05 08:24:00,
2013-02-05 03:25:00,18.3,15.1,29.78,SSE,158,0.0,0.0,87,0.00,CLR,,0.00,WeatherDisplay:10.37,2013-02-05 08:25:00,
2013-02-05 03:26:00,18.3,15.1,29.78,SE,135,0.0,0.0,87,0.00,CLR,,0.00,WeatherDisplay:10.37,2013-02-05 08:26:00,
2013-02-05 03:27:00,18.3,14.8,29.78,SSE,158,0.0,0.0,86,0.00,CLR,,0.00,WeatherDisplay:10.37,2013-02-05 08:27:00,
2013-02-05 03:29:00,18.3,14.8,29.78,SSE,158,0.0,0.0,86,0.00,CLR,,0.00,WeatherDisplay:10.37,2013-02-05 08:29:00,
2013-02-05 03:30:00,18.3,14.8,29.78,SSE,158,0.0,0.0,86,0.00,CLR,,0.00,WeatherDisplay:10.37,2013-02-05 08:30:00,
2013-02-05 03:31:00,18.3,14.8,29.78,SSE,158,0.0,0.0,86,0.00,CLR,,0.00,WeatherDisplay:10.37,2013-02-05 08:31:00,
2013-02-05 03:32:00,18.3,14.8,29.78,SE,135,0.0,0.0,86,0.00,CLR,,0.00,WeatherDisplay:10.37,2013-02-05 08:32:00,
2013-02-05 03:35:00,18.3,14.8,29.78,ESE,112,0.0,0.0,86,0.00,CLR,,0.00,WeatherDisplay:10.37,2013-02-05 08:35:00,
2013-02-05 03:37:00,18.1,14.7,29.78,SSE,158,0.0,0.0,86,0.00,CLR,,0.00,WeatherDisplay:10.37,2013-02-05 08:37:00,
2013-02-05 03:40:00,18.1,14.7,29.78,SE,135,0.0,0.0,86,0.00,CLR,,0.00,WeatherDisplay:10.37,2013-02-05 08:40:00,
2013-02-05 03:42:00,18.1,14.7,29.78,SE,135,0.0,0.0,86,0.00,CLR,,0.00,WeatherDisplay:10.37,2013-02-05 08:42:00,
2013-02-05 03:45:00,18.1,14.7,29.78,ESE,112,0.0,0.0,86,0.00,CLR,,0.00,WeatherDisplay:10.37,2013-02-05 08:45:00,
2013-02-05 03:47:00,18.1,14.7,29.78,SSE,158,0.0,0.0,86,0.00,CLR,,0.00,WeatherDisplay:10.37,2013-02-05 08:47:00,
2013-02-05 03:48:00,18.1,14.7,29.78,ESE,112,0.0,0.0,86,0.00,CLR,,0.00,WeatherDisplay:10.37,2013-02-05 08:48:00,
2013-02-05 03:50:00,18.0,14.5,29.78,SSE,158,0.0,0.0,86,0.00,CLR,,0.00,WeatherDisplay:10.37,2013-02-05 08:50:00,
2013-02-05 03:52:00,18.0,14.5,29.78,SE,135,0.0,0.0,86,0.00,CLR,,0.00,WeatherDisplay:10.37,2013-02-05 08:52:00,
2013-02-05 03:53:00,18.0,14.5,29.78,SSE,158,0.0,0.0,86,0.00,CLR,,0.00,WeatherDisplay:10.37,2013-02-05 08:53:00,
2013-02-05 03:55:00,18.0,14.5,29.78,ESE,112,0.0,0.0,86,0.00,CLR,,0.00,WeatherDisplay:10.37,2013-02-05 08:55:00,
2013-02-05 03:56:00,18.0,14.5,29.78,ESE,112,0.0,0.0,86,0.00,CLR,,0.00,WeatherDisplay:10.37,2013-02-05 08:56:00,
2013-02-05 03:57:00,18.0,14.5,29.78,ESE,112,0.0,0.0,86,0.00,CLR,,0.00,WeatherDisplay:10.37,2013-02-05 08:57:00,
2013-02-05 03:58:00,18.0,14.5,29.78,SSE,158,0.0,0.0,86,0.00,CLR,,0.00,WeatherDisplay:10.37,2013-02-05 08:58:00,
2013-02-05 04:01:00,17.8,14.3,29.78,SSE,158,0.0,0.0,86,0.00,CLR,,0.00,WeatherDisplay:10.37,2013-02-05 09:01:00,
2013-02-05 04:02:00,17.8,14.0,29.78,ESE,112,0.0,0.0,85,0.00,CLR,,0.00,WeatherDisplay:10.37,2013-02-05 09:02:00,
2013-02-05 04:03:00,17.8,14.0,29.78,SE,135,0.0,0.0,85,0.00,CLR,,0.00,WeatherDisplay:10.37,2013-02-05 09:03:00,
2013-02-05 04:06:00,17.8,14.0,29.78,SSE,158,0.0,0.0,85,0.00,CLR,,0.00,WeatherDisplay:10.37,2013-02-05 09:06:00,
2013-02-05 04:07:00,17.8,14.0,29.78,SE,135,0.0,0.0,85,0.00,CLR,,0.00,WeatherDisplay:10.37,2013-02-05 09:07:00,
2013-02-05 04:08:00,17.8,14.0,29.78,SSE,158,0.0,0.0,85,0.00,CLR,,0.00,WeatherDisplay:10.37,2013-02-05 09:08:00,
2013-02-05 04:11:00,17.8,14.0,29.78,ESE,112,0.0,0.0,85,0.00,CLR,,0.00,WeatherDisplay:10.37,2013-02-05 09:11:00,
2013-02-05 04:12:00,17.8,14.0,29.78,ESE,112,0.0,0.0,85,0.00,CLR,,0.00,WeatherDisplay:10.37,2013-02-05 09:12:00,
2013-02-05 04:13:00,17.8,14.0,29.78,ESE,112,0.0,0.0,85,0.00,CLR,,0.00,WeatherDisplay:10.37,2013-02-05 09:13:00,
2013-02-05 04:16:00,17.8,14.0,29.78,West,270,0.0,0.0,85,0.00,CLR,,0.00,WeatherDisplay:10.37,2013-02-05 09:16:00,
2013-02-05 04:18:00,17.6,14.1,29.78,ESE,112,0.0,0.0,86,0.00,CLR,,0.00,WeatherDisplay:10.37,2013-02-05 09:18:00,
2013-02-05 04:21:00,17.6,13.9,29.78,ESE,112,0.0,0.0,85,0.00,CLR,,0.00,WeatherDisplay:10.37,2013-02-05 09:21:00,
2013-02-05 04:23:00,17.6,13.9,29.78,SSE,158,0.0,0.0,85,0.00,CLR,,0.00,WeatherDisplay:10.37,2013-02-05 09:23:00,
2013-02-05 04:26:00,17.6,13.9,29.78,SSE,158,0.0,0.0,85,0.00,CLR,,0.00,WeatherDisplay:10.37,2013-02-05 09:26:00,
2013-02-05 04:28:00,17.6,13.9,29.78,SSE,158,0.0,0.0,85,0.00,CLR,,0.00,WeatherDisplay:10.37,2013-02-05 09:28:00,
2013-02-05 04:31:00,17.4,13.7,29.78,SSE,158,0.0,0.0,85,0.00,CLR,,0.00,WeatherDisplay:10.37,2013-02-05 09:31:00,
2013-02-05 04:33:00,17.4,13.7,29.78,ESE,112,0.0,0.0,85,0.00,CLR,,0.00,WeatherDisplay:10.37,2013-02-05 09:33:00,
2013-02-05 04:34:00,17.4,13.7,29.78,ESE,112,0.0,0.0,85,0.00,CLR,,0.00,WeatherDisplay:10.37,2013-02-05 09:34:00,
2013-02-05 04:36:00,17.4,13.7,29.78,SSW,202,0.0,0.0,85,0.00,CLR,,0.00,WeatherDisplay:10.37,2013-02-05 09:36:00,
2013-02-05 04:37:00,17.4,13.7,29.78,SSE,158,0.0,0.0,85,0.00,CLR,,0.00,WeatherDisplay:10.37,2013-02-05 09:37:00,
2013-02-05 04:38:00,17.4,13.7,29.78,SSE,158,0.0,0.0,85,0.00,CLR,,0.00,WeatherDisplay:10.37,2013-02-05 09:38:00,
2013-02-05 04:39:00,17.4,13.7,29.78,SSW,202,0.0,0.0,85,0.00,CLR,,0.00,WeatherDisplay:10.37,2013-02-05 09:39:00,
2013-02-05 04:45:00,17.2,13.5,29.78,South,180,0.0,0.0,85,0.00,CLR,,0.00,WeatherDisplay:10.37,2013-02-05 09:45:00,
2013-02-05 04:50:00,17.1,13.1,29.78,SSE,158,0.0,0.0,84,0.00,CLR,,0.00,WeatherDisplay:10.37,2013-02-05 09:50:00,
2013-02-05 04:55:00,17.1,13.1,29.78,SE,135,0.0,0.0,84,0.00,CLR,,0.00,WeatherDisplay:10.37,2013-02-05 09:55:00,
2013-02-05 04:56:00,17.1,13.1,29.78,ESE,112,0.0,0.0,84,0.00,CLR,,0.00,WeatherDisplay:10.37,2013-02-05 09:56:00,
2013-02-05 05:00:00,17.1,13.1,29.78,South,180,0.0,0.0,84,0.00,CLR,,0.00,WeatherDisplay:10.37,2013-02-05 10:00:00,
2013-02-05 05:01:00,17.1,13.1,29.78,South,180,0.0,0.0,84,0.00,CLR,,0.00,WeatherDisplay:10.37,2013-02-05 10:01:00,
2013-02-05 05:06:00,17.1,13.1,29.78,SSE,158,0.0,0.0,84,0.00,CLR,,0.00,WeatherDisplay:10.37,2013-02-05 10:06:00,
2013-02-05 05:11:00,16.9,12.9,29.78,SSE,158,0.0,0.0,84,0.00,CLR,,0.00,WeatherDisplay:10.37,2013-02-05 10:11:00,
2013-02-05 05:12:00,16.9,12.9,29.78,SSW,202,0.0,0.0,84,0.00,CLR,,0.00,WeatherDisplay:10.37,2013-02-05 10:12:00,
2013-02-05 05:16:00,16.9,12.6,29.78,SSE,158,0.0,0.0,83,0.00,CLR,,0.00,WeatherDisplay:10.37,2013-02-05 10:16:00,
2013-02-05 05:17:00,16.9,12.6,29.78,SSE,158,0.0,0.0,83,0.00,CLR,,0.00,WeatherDisplay:10.37,2013-02-05 10:17:00,
2013-02-05 05:21:00,16.9,12.6,29.81,South,180,0.0,0.0,83,0.00,CLR,,0.00,WeatherDisplay:10.37,2013-02-05 10:21:00,
2013-02-05 05:22:00,16.9,12.6,29.81,SSE,158,0.0,0.0,83,0.00,CLR,,0.00,WeatherDisplay:10.37,2013-02-05 10:22:00,
2013-02-05 05:26:00,16.9,12.6,29.81,SSE,158,0.0,0.0,83,0.00,CLR,,0.00,WeatherDisplay:10.37,2013-02-05 10:26:00,
2013-02-05 05:27:00,16.9,12.6,29.81,SSE,158,0.0,0.0,83,0.00,CLR,,0.00,WeatherDisplay:10.37,2013-02-05 10:27:00,
2013-02-05 05:31:00,16.9,12.6,29.81,SW,225,0.0,0.0,83,0.00,CLR,,0.00,WeatherDisplay:10.37,2013-02-05 10:31:00,
2013-02-05 05:32:00,16.9,12.6,29.81,SSW,202,0.0,0.0,83,0.00,CLR,,0.00,WeatherDisplay:10.37,2013-02-05 10:32:00,
2013-02-05 05:36:00,16.9,12.3,29.81,South,180,0.0,0.0,82,0.00,CLR,,0.00,WeatherDisplay:10.37,2013-02-05 10:36:00,
2013-02-05 05:37:00,16.9,12.3,29.81,South,180,0.0,0.0,82,0.00,CLR,,0.00,WeatherDisplay:10.37,2013-02-05 10:37:00,
2013-02-05 05:41:00,16.9,12.3,29.81,SSE,158,0.0,0.0,82,0.00,CLR,,0.00,WeatherDisplay:10.37,2013-02-05 10:41:00,
2013-02-05 05:42:00,16.9,12.3,29.81,SSE,158,0.0,0.0,82,0.00,CLR,,0.00,WeatherDisplay:10.37,2013-02-05 10:42:00,
2013-02-05 05:43:00,16.9,12.3,29.81,SSE,158,0.0,0.0,82,0.00,CLR,,0.00,WeatherDisplay:10.37,2013-02-05 10:43:00,
2013-02-05 05:46:00,16.9,12.3,29.81,SSE,158,0.0,0.0,82,0.00,CLR,,0.00,WeatherDisplay:10.37,2013-02-05 10:46:00,
2013-02-05 05:48:00,16.9,12.3,29.81,ESE,112,0.0,0.0,82,0.00,CLR,,0.00,WeatherDisplay:10.37,2013-02-05 10:48:00,
2013-02-05 05:52:00,16.9,12.3,29.81,SSE,158,0.0,0.0,82,0.00,CLR,,0.00,WeatherDisplay:10.37,2013-02-05 10:52:00,
2013-02-05 05:53:00,16.9,12.3,29.81,SSW,202,0.0,0.0,82,0.00,CLR,,0.00,WeatherDisplay:10.37,2013-02-05 10:53:00,
2013-02-05 05:57:00,16.9,12.3,29.81,SSE,158,0.0,0.0,82,0.00,CLR,,0.00,WeatherDisplay:10.37,2013-02-05 10:57:00,
2013-02-05 05:58:00,16.9,12.3,29.81,SSE,158,0.0,0.0,82,0.00,CLR,,0.00,WeatherDisplay:10.37,2013-02-05 10:58:00,
2013-02-05 06:02:00,16.9,12.1,29.81,SSE,158,0.0,0.0,81,0.00,CLR,,0.00,WeatherDisplay:10.37,2013-02-05 11:02:00,
2013-02-05 06:03:00,16.9,12.1,29.81,SSW,202,0.0,0.0,81,0.00,CLR,,0.00,WeatherDisplay:10.37,2013-02-05 11:03:00,
2013-02-05 06:04:00,16.9,12.1,29.81,SSW,202,0.0,0.0,81,0.00,CLR,,0.00,WeatherDisplay:10.37,2013-02-05 11:04:00,
2013-02-05 06:07:00,16.9,12.1,29.81,South,180,0.0,0.0,81,0.00,CLR,,0.00,WeatherDisplay:10.37,2013-02-05 11:07:00,
2013-02-05 06:08:00,16.9,12.1,29.81,South,180,0.0,0.0,81,0.00,CLR,,0.00,WeatherDisplay:10.37,2013-02-05 11:08:00,
2013-02-05 06:09:00,16.9,12.1,29.81,SSE,158,0.0,0.0,81,0.00,CLR,,0.00,WeatherDisplay:10.37,2013-02-05 11:09:00,
2013-02-05 06:12:00,16.9,12.1,29.81,SSE,158,0.0,0.0,81,0.00,CLR,,0.00,WeatherDisplay:10.37,2013-02-05 11:12:00,
2013-02-05 06:13:00,16.9,12.1,29.81,SSE,158,0.0,0.0,81,0.00,CLR,,0.00,WeatherDisplay:10.37,2013-02-05 11:13:00,
2013-02-05 06:14:00,16.9,12.1,29.81,SSE,158,0.0,0.0,81,0.00,CLR,,0.00,WeatherDisplay:10.37,2013-02-05 11:14:00,
2013-02-05 06:17:00,16.9,12.1,29.81,South,180,0.0,0.0,81,0.00,CLR,,0.00,WeatherDisplay:10.37,2013-02-05 11:17:00,
2013-02-05 06:18:00,16.9,12.1,29.81,SSE,158,0.0,0.0,81,0.00,CLR,,0.00,WeatherDisplay:10.37,2013-02-05 11:18:00,
2013-02-05 06:19:00,16.9,12.1,29.81,SSW,202,0.0,0.0,81,0.00,CLR,,0.00,WeatherDisplay:10.37,2013-02-05 11:19:00,
2013-02-05 06:22:00,16.9,12.1,29.81,SE,135,0.0,0.0,81,0.00,CLR,,0.00,WeatherDisplay:10.37,2013-02-05 11:22:00,
2013-02-05 06:23:00,16.9,12.1,29.81,South,180,0.0,0.0,81,0.00,CLR,,0.00,WeatherDisplay:10.37,2013-02-05 11:23:00,
2013-02-05 06:24:00,16.9,12.1,29.81,South,180,0.0,0.0,81,0.00,CLR,,0.00,WeatherDisplay:10.37,2013-02-05 11:24:00,
2013-02-05 06:27:00,16.9,11.8,29.81,SE,135,0.0,0.0,80,0.00,CLR,,0.00,WeatherDisplay:10.37,2013-02-05 11:27:00,
2013-02-05 06:28:00,16.9,11.8,29.81,SE,135,0.0,0.0,80,0.00,CLR,,0.00,WeatherDisplay:10.37,2013-02-05 11:28:00,
2013-02-05 06:29:00,16.9,11.8,29.81,SW,225,0.0,0.0,80,0.00,CLR,,0.00,WeatherDisplay:10.37,2013-02-05 11:29:00,
2013-02-05 06:32:00,16.9,11.8,29.81,SSE,158,0.0,0.0,80,0.00,CLR,,0.00,WeatherDisplay:10.37,2013-02-05 11:32:00,
2013-02-05 06:34:00,16.9,11.8,29.81,SSE,158,0.0,0.0,80,0.00,CLR,,0.00,WeatherDisplay:10.37,2013-02-05 11:34:00,
2013-02-05 06:35:00,16.9,11.8,29.81,SSE,158,0.0,0.0,80,0.00,CLR,,0.00,WeatherDisplay:10.37,2013-02-05 11:35:00,
2013-02-05 06:36:00,16.9,11.8,29.81,SSE,158,0.0,0.0,80,0.00,CLR,,0.00,WeatherDisplay:10.37,2013-02-05 11:36:00,
2013-02-05 06:37:00,16.9,11.8,29.81,SSW,202,0.0,0.0,80,0.00,CLR,,0.00,WeatherDisplay:10.37,2013-02-05 11:37:00,
2013-02-05 06:39:00,16.9,11.8,29.81,SSE,158,0.0,0.0,80,0.00,CLR,,0.00,WeatherDisplay:10.37,2013-02-05 11:39:00,
2013-02-05 06:40:00,16.9,11.8,29.81,SSE,158,0.0,0.0,80,0.00,CLR,,0.00,WeatherDisplay:10.37,2013-02-05 11:40:00,
2013-02-05 06:41:00,16.9,11.8,29.81,SE,135,0.0,0.0,80,0.00,CLR,,0.00,WeatherDisplay:10.37,2013-02-05 11:41:00,
2013-02-05 06:42:00,16.9,11.8,29.81,SSE,158,0.0,0.0,80,0.00,CLR,,0.00,WeatherDisplay:10.37,2013-02-05 11:42:00,
2013-02-05 06:44:00,16.9,11.5,29.81,SSE,158,0.0,0.0,79,0.00,CLR,,0.00,WeatherDisplay:10.37,2013-02-05 11:44:00,
2013-02-05 06:45:00,16.9,11.5,29.81,SSE,158,0.0,0.0,79,0.00,CLR,,0.00,WeatherDisplay:10.37,2013-02-05 11:45:00,
2013-02-05 06:46:00,16.9,11.5,29.81,SSW,202,0.0,0.0,79,0.00,CLR,,0.00,WeatherDisplay:10.37,2013-02-05 11:46:00,
2013-02-05 06:47:00,16.9,11.5,29.81,SSE,158,0.0,0.0,79,0.00,CLR,,0.00,WeatherDisplay:10.37,2013-02-05 11:47:00,
2013-02-05 06:49:00,16.9,11.5,29.81,SSE,158,0.0,0.0,79,0.00,CLR,,0.00,WeatherDisplay:10.37,2013-02-05 11:49:00,
2013-02-05 06:50:00,16.9,11.5,29.81,SSE,158,0.0,0.0,79,0.00,CLR,,0.00,WeatherDisplay:10.37,2013-02-05 11:50:00,
2013-02-05 06:51:00,16.9,11.5,29.81,SSE,158,0.0,0.0,79,0.00,CLR,,0.00,WeatherDisplay:10.37,2013-02-05 11:51:00,
2013-02-05 06:53:00,16.9,11.5,29.81,SSE,158,0.0,0.0,79,0.00,CLR,,0.00,WeatherDisplay:10.37,2013-02-05 11:53:00,
2013-02-05 06:54:00,16.9,11.2,29.81,SSE,158,0.0,0.0,78,0.00,CLR,,0.00,WeatherDisplay:10.37,2013-02-05 11:54:00,
2013-02-05 06:55:00,16.9,11.2,29.81,SSE,158,0.0,0.0,78,0.00,CLR,,0.00,WeatherDisplay:10.37,2013-02-05 11:55:00,
2013-02-05 06:56:00,16.9,11.2,29.81,SE,135,0.0,0.0,78,0.00,CLR,,0.00,WeatherDisplay:10.37,2013-02-05 11:56:00,
2013-02-05 06:58:00,16.9,11.2,29.81,ESE,112,0.0,0.0,78,0.00,CLR,,0.00,WeatherDisplay:10.37,2013-02-05 11:58:00,
2013-02-05 06:59:00,16.9,11.2,29.81,SSE,158,0.0,0.0,78,0.00,CLR,,0.00,WeatherDisplay:10.37,2013-02-05 11:59:00,
2013-02-05 07:01:00,16.9,10.9,29.81,SSW,202,0.0,0.0,77,0.00,CLR,,0.00,WeatherDisplay:10.37,2013-02-05 12:01:00,
2013-02-05 07:03:00,16.9,10.9,29.81,SSE,158,0.0,0.0,77,0.00,CLR,,0.00,WeatherDisplay:10.37,2013-02-05 12:03:00,
2013-02-05 07:04:00,16.9,10.9,29.81,SE,135,0.0,0.0,77,0.00,CLR,,0.00,WeatherDisplay:10.37,2013-02-05 12:04:00,
2013-02-05 07:06:00,16.9,10.9,29.81,SSW,202,0.0,0.0,77,0.00,CLR,,0.00,WeatherDisplay:10.37,2013-02-05 12:06:00,
2013-02-05 07:08:00,16.9,10.9,29.81,South,180,0.0,0.0,77,0.00,CLR,,0.00,WeatherDisplay:10.37,2013-02-05 12:08:00,
2013-02-05 07:09:00,16.7,10.7,29.81,South,180,0.0,0.0,77,0.00,CLR,,0.00,WeatherDisplay:10.37,2013-02-05 12:09:00,
2013-02-05 07:11:00,16.7,10.7,29.81,SSE,158,0.0,0.0,77,0.00,CLR,,0.00,WeatherDisplay:10.37,2013-02-05 12:11:00,
2013-02-05 07:13:00,16.7,10.7,29.81,SSE,158,0.0,0.0,77,0.00,CLR,,0.00,WeatherDisplay:10.37,2013-02-05 12:13:00,
2013-02-05 07:14:00,16.7,10.7,29.81,SSE,158,0.0,0.0,77,0.00,CLR,,0.00,WeatherDisplay:10.37,2013-02-05 12:14:00,
2013-02-05 07:16:00,16.7,10.7,29.81,SSE,158,0.0,0.0,77,0.00,CLR,,0.00,WeatherDisplay:10.37,2013-02-05 12:16:00,
2013-02-05 07:17:00,16.7,10.7,29.81,SSE,158,0.0,0.0,77,0.00,CLR,,0.00,WeatherDisplay:10.37,2013-02-05 12:17:00,
2013-02-05 07:18:00,16.7,10.7,29.81,SSE,158,0.0,0.0,77,0.00,CLR,,0.00,WeatherDisplay:10.37,2013-02-05 12:18:00,
2013-02-05 07:20:00,16.7,10.7,29.81,SSE,158,0.0,0.0,77,0.00,CLR,,0.00,WeatherDisplay:10.37,2013-02-05 12:20:00,
2013-02-05 07:21:00,16.7,10.7,29.81,ESE,112,0.0,0.0,77,0.00,CLR,,0.00,WeatherDisplay:10.37,2013-02-05 12:21:00,
2013-02-05 07:22:00,16.7,10.7,29.81,ESE,112,0.0,0.0,77,0.00,CLR,,0.00,WeatherDisplay:10.37,2013-02-05 12:22:00,
2013-02-05 07:23:00,16.7,10.7,29.81,SSE,158,0.0,0.0,77,0.00,CLR,,0.00,WeatherDisplay:10.37,2013-02-05 12:23:00,
2013-02-05 07:25:00,16.7,10.7,29.81,SSW,202,0.0,0.0,77,0.00,CLR,,0.00,WeatherDisplay:10.37,2013-02-05 12:25:00,
2013-02-05 07:26:00,16.7,10.7,29.81,SSW,202,0.0,0.0,77,0.00,CLR,,0.00,WeatherDisplay:10.37,2013-02-05 12:26:00,
2013-02-05 07:27:00,16.7,10.7,29.81,East,90,0.0,0.0,77,0.00,CLR,,0.00,WeatherDisplay:10.37,2013-02-05 12:27:00,
2013-02-05 07:29:00,16.9,10.9,29.81,South,180,0.0,0.0,77,0.00,CLR,,0.00,WeatherDisplay:10.37,2013-02-05 12:29:00,
2013-02-05 07:30:00,16.9,10.9,29.81,SSW,202,0.0,0.0,77,0.00,CLR,,0.00,WeatherDisplay:10.37,2013-02-05 12:30:00,
2013-02-05 07:31:00,16.9,10.9,29.81,SSE,158,0.0,0.0,77,0.00,CLR,,0.00,WeatherDisplay:10.37,2013-02-05 12:31:00,
2013-02-05 07:33:00,16.9,10.9,29.81,SSW,202,0.0,0.0,77,0.00,CLR,,0.00,WeatherDisplay:10.37,2013-02-05 12:33:00,
2013-02-05 07:34:00,16.9,10.9,29.81,SSW,202,0.0,0.0,77,0.00,CLR,,0.00,WeatherDisplay:10.37,2013-02-05 12:34:00,
2013-02-05 07:35:00,16.9,10.9,29.81,SSE,158,0.0,0.0,77,0.00,CLR,,0.00,WeatherDisplay:10.37,2013-02-05 12:35:00,
2013-02-05 07:37:00,16.9,10.9,29.78,SSE,158,0.0,0.0,77,0.00,CLR,,0.00,WeatherDisplay:10.37,2013-02-05 12:37:00,
2013-02-05 07:38:00,16.9,10.9,29.78,SSE,158,0.0,0.0,77,0.00,CLR,,0.00,WeatherDisplay:10.37,2013-02-05 12:38:00,
2013-02-05 07:40:00,17.1,11.1,29.78,SE,135,0.0,0.0,77,0.00,CLR,,0.00,WeatherDisplay:10.37,2013-02-05 12:40:00,
2013-02-05 07:42:00,17.1,11.1,29.78,SSE,158,0.0,0.0,77,0.00,CLR,,0.00,WeatherDisplay:10.37,2013-02-05 12:42:00,
2013-02-05 07:43:00,17.1,11.1,29.78,SSE,158,0.0,0.0,77,0.00,CLR,,0.00,WeatherDisplay:10.37,2013-02-05 12:43:00,
2013-02-05 07:45:00,17.1,11.1,29.78,SSW,202,0.0,0.0,77,0.00,CLR,,0.00,WeatherDisplay:10.37,2013-02-05 12:45:00,
2013-02-05 07:47:00,17.1,11.1,29.78,SSE,158,0.0,0.0,77,0.00,CLR,,0.00,WeatherDisplay:10.37,2013-02-05 12:47:00,
2013-02-05 07:48:00,17.1,11.1,29.78,ESE,112,0.0,0.0,77,0.00,CLR,,0.00,WeatherDisplay:10.37,2013-02-05 12:48:00,
2013-02-05 07:50:00,17.2,11.3,29.78,SSW,202,0.0,0.0,77,0.00,CLR,,0.00,WeatherDisplay:10.37,2013-02-05 12:50:00,
2013-02-05 07:51:00,17.2,11.3,29.81,SSE,158,0.0,0.0,77,0.00,CLR,,0.00,WeatherDisplay:10.37,2013-02-05 12:51:00,
2013-02-05 07:52:00,17.2,11.3,29.81,SW,225,0.0,0.0,77,0.00,CLR,,0.00,WeatherDisplay:10.37,2013-02-05 12:52:00,
2013-02-05 07:53:00,17.2,11.3,29.81,SSW,202,0.0,0.0,77,0.00,CLR,,0.00,WeatherDisplay:10.37,2013-02-05 12:53:00,
2013-02-05 07:55:00,17.2,11.0,29.81,SSW,202,0.0,0.0,76,0.00,CLR,,0.00,WeatherDisplay:10.37,2013-02-05 12:55:00,
2013-02-05 07:56:00,17.4,11.1,29.81,South,180,0.0,0.0,76,0.00,CLR,,0.00,WeatherDisplay:10.37,2013-02-05 12:56:00,
2013-02-05 07:57:00,17.4,11.1,29.81,SSE,158,0.0,0.0,76,0.00,CLR,,0.00,WeatherDisplay:10.37,2013-02-05 12:57:00,
2013-02-05 07:58:00,17.4,11.1,29.81,SSE,158,0.0,0.0,76,0.00,CLR,,0.00,WeatherDisplay:10.37,2013-02-05 12:58:00,
2013-02-05 08:00:00,17.6,11.3,29.81,SSW,202,0.0,0.0,76,0.00,CLR,,0.00,WeatherDisplay:10.37,2013-02-05 13:00:00,
2013-02-05 08:01:00,17.6,11.3,29.81,SSW,202,0.0,0.0,76,0.00,CLR,,0.00,WeatherDisplay:10.37,2013-02-05 13:01:00,
2013-02-05 08:02:00,17.4,10.8,29.81,SSE,158,0.0,0.0,75,0.00,CLR,,0.00,WeatherDisplay:10.37,2013-02-05 13:02:00,
2013-02-05 08:03:00,17.6,11.0,29.81,SSE,158,0.0,0.0,75,0.00,CLR,,0.00,WeatherDisplay:10.37,2013-02-05 13:03:00,
2013-02-05 08:05:00,17.6,11.0,29.81,SE,135,0.0,0.0,75,0.00,CLR,,0.00,WeatherDisplay:10.37,2013-02-05 13:05:00,
2013-02-05 08:07:00,17.6,11.0,29.78,SSE,158,0.0,0.0,75,0.00,CLR,,0.00,WeatherDisplay:10.37,2013-02-05 13:07:00,
2013-02-05 08:08:00,17.6,11.0,29.78,SSE,158,0.0,0.0,75,0.00,CLR,,0.00,WeatherDisplay:10.37,2013-02-05 13:08:00,
2013-02-05 08:10:00,17.8,11.2,29.78,SSW,202,0.0,0.0,75,0.00,CLR,,0.00,WeatherDisplay:10.37,2013-02-05 13:10:00,
2013-02-05 08:12:00,17.8,10.9,29.78,SSW,202,0.0,0.0,74,0.00,CLR,,0.00,WeatherDisplay:10.37,2013-02-05 13:12:00,
2013-02-05 08:13:00,17.8,10.9,29.78,SW,225,0.0,0.0,74,0.00,CLR,,0.00,WeatherDisplay:10.37,2013-02-05 13:13:00,
2013-02-05 08:16:00,17.8,10.9,29.78,SSE,158,0.0,0.0,74,0.00,CLR,,0.00,WeatherDisplay:10.37,2013-02-05 13:16:00,
2013-02-05 08:17:00,17.8,10.9,29.78,SSW,202,0.0,0.0,74,0.00,CLR,,0.00,WeatherDisplay:10.37,2013-02-05 13:17:00,
2013-02-05 08:18:00,18.0,10.8,29.78,South,180,0.0,0.0,73,0.00,CLR,,0.00,WeatherDisplay:10.37,2013-02-05 13:18:00,
2013-02-05 08:21:00,18.1,10.9,29.78,South,180,0.0,0.0,73,0.00,CLR,,0.00,WeatherDisplay:10.37,2013-02-05 13:21:00,
2013-02-05 08:22:00,18.3,11.1,29.81,SSW,202,0.0,0.0,73,0.00,CLR,,0.00,WeatherDisplay:10.37,2013-02-05 13:22:00,
2013-02-05 08:23:00,18.3,11.1,29.81,SSW,202,0.0,0.0,73,0.00,CLR,,0.00,WeatherDisplay:10.37,2013-02-05 13:23:00,
2013-02-05 08:26:00,18.3,11.1,29.81,SSW,202,0.0,0.0,73,0.00,CLR,,0.00,WeatherDisplay:10.37,2013-02-05 13:26:00,
2013-02-05 08:27:00,18.5,11.3,29.81,SSW,202,0.0,0.0,73,0.00,CLR,,0.00,WeatherDisplay:10.37,2013-02-05 13:27:00,
2013-02-05 08:28:00,18.5,11.3,29.81,SSW,202,0.0,0.0,73,0.00,CLR,,0.00,WeatherDisplay:10.37,2013-02-05 13:28:00,
2013-02-05 08:31:00,18.7,11.5,29.81,WSW,248,0.0,0.0,73,0.00,CLR,,0.00,WeatherDisplay:10.37,2013-02-05 13:31:00,
2013-02-05 08:32:00,18.7,11.1,29.81,SSW,202,0.0,0.0,72,0.00,CLR,,0.00,WeatherDisplay:10.37,2013-02-05 13:32:00,
2013-02-05 08:33:00,18.7,11.1,29.81,WSW,248,0.0,0.0,72,0.00,CLR,,0.00,WeatherDisplay:10.37,2013-02-05 13:33:00,
2013-02-05 08:36:00,18.9,11.3,29.81,WSW,248,0.0,0.0,72,0.00,CLR,,0.00,WeatherDisplay:10.37,2013-02-05 13:36:00,
2013-02-05 08:37:00,18.9,11.3,29.81,WSW,248,0.0,0.0,72,0.00,CLR,,0.00,WeatherDisplay:10.37,2013-02-05 13:37:00,
2013-02-05 08:38:00,19.0,11.5,29.81,SSW,202,0.0,0.0,72,0.00,CLR,,0.00,WeatherDisplay:10.37,2013-02-05 13:38:00,
2013-02-05 08:41:00,19.0,11.2,29.81,WNW,292,0.0,0.0,71,0.00,CLR,,0.00,WeatherDisplay:10.37,2013-02-05 13:41:00,
2013-02-05 08:43:00,19.2,11.4,29.81,WSW,248,0.0,0.0,71,0.00,CLR,,0.00,WeatherDisplay:10.37,2013-02-05 13:43:00,
2013-02-05 08:44:00,19.4,11.8,29.81,WNW,292,0.0,0.0,72,0.00,CLR,,0.00,WeatherDisplay:10.37,2013-02-05 13:44:00,
2013-02-05 08:46:00,19.6,11.7,29.81,South,180,0.0,0.0,71,0.00,CLR,,0.00,WeatherDisplay:10.37,2013-02-05 13:46:00,
2013-02-05 08:48:00,19.6,11.7,29.81,SW,225,0.0,0.0,71,0.00,CLR,,0.00,WeatherDisplay:10.37,2013-02-05 13:48:00,
2013-02-05 08:49:00,19.6,11.7,29.81,SSW,202,0.0,0.0,71,0.00,CLR,,0.00,WeatherDisplay:10.37,2013-02-05 13:49:00,
2013-02-05 08:51:00,19.8,11.9,29.84,WSW,248,0.0,0.0,71,0.00,CLR,,0.00,WeatherDisplay:10.37,2013-02-05 13:51:00,
2013-02-05 08:53:00,19.8,11.9,29.84,SE,135,0.0,0.0,71,0.00,CLR,,0.00,WeatherDisplay:10.37,2013-02-05 13:53:00,
2013-02-05 08:54:00,19.9,12.0,29.84,SSW,202,0.0,0.0,71,0.00,CLR,,0.00,WeatherDisplay:10.37,2013-02-05 13:54:00,
2013-02-05 08:56:00,19.9,11.7,29.84,SSW,202,0.0,0.0,70,0.00,CLR,,0.00,WeatherDisplay:10.37,2013-02-05 13:56:00,
2013-02-05 08:59:00,19.8,10.9,29.84,SW,225,0.0,0.0,68,0.00,CLR,,0.00,WeatherDisplay:10.37,2013-02-05 13:59:00,
2013-02-05 09:01:00,20.1,11.2,29.84,SSE,158,0.0,0.0,68,0.00,CLR,,0.00,WeatherDisplay:10.37,2013-02-05 14:01:00,
2013-02-05 09:04:00,20.1,11.2,29.84,WSW,248,0.0,0.0,68,0.00,CLR,,0.00,WeatherDisplay:10.37,2013-02-05 14:04:00,
2013-02-05 09:07:00,20.1,10.6,29.81,SSW,202,0.0,0.0,66,0.00,CLR,,0.00,WeatherDisplay:10.37,2013-02-05 14:07:00,
2013-02-05 09:09:00,20.1,10.2,29.81,SSW,202,0.0,0.0,65,0.00,CLR,,0.00,WeatherDisplay:10.37,2013-02-05 14:09:00,
2013-02-05 09:12:00,20.1,9.9,29.81,WSW,248,0.0,0.0,64,0.00,CLR,,0.00,WeatherDisplay:10.37,2013-02-05 14:12:00,
2013-02-05 09:14:00,20.3,10.4,29.81,SSW,202,0.0,0.0,65,0.00,CLR,,0.00,WeatherDisplay:10.37,2013-02-05 14:14:00,
2013-02-05 09:17:00,21.0,11.4,29.81,SSW,202,0.0,0.0,66,0.00,CLR,,0.00,WeatherDisplay:10.37,2013-02-05 14:17:00,
2013-02-05 09:19:00,20.8,11.3,29.81,WSW,248,0.0,0.0,66,0.00,CLR,,0.00,WeatherDisplay:10.37,2013-02-05 14:19:00,
2013-02-05 09:20:00,20.8,10.9,29.81,NW,315,0.0,0.0,65,0.00,CLR,,0.00,WeatherDisplay:10.37,2013-02-05 14:20:00,
2013-02-05 09:22:00,21.2,11.3,29.84,SSW,202,0.0,0.0,65,0.00,CLR,,0.00,WeatherDisplay:10.37,2013-02-05 14:22:00,
2013-02-05 09:24:00,21.2,11.3,29.84,SSW,202,0.0,0.0,65,0.00,CLR,,0.00,WeatherDisplay:10.37,2013-02-05 14:24:00,
2013-02-05 09:25:00,21.2,11.3,29.84,SSW,202,0.0,0.0,65,0.00,CLR,,0.00,WeatherDisplay:10.37,2013-02-05 14:25:00,
2013-02-05 09:27:00,21.0,10.4,29.84,WSW,248,0.0,0.0,63,0.00,CLR,,0.00,WeatherDisplay:10.37,2013-02-05 14:27:00,
2013-02-05 09:29:00,21.0,10.0,29.84,SW,225,0.0,0.0,62,0.00,CLR,,0.00,WeatherDisplay:10.37,2013-02-05 14:29:00,
2013-02-05 09:30:00,21.0,10.0,29.84,SW,225,0.0,0.0,62,0.00,CLR,,0.00,WeatherDisplay:10.37,2013-02-05 14:30:00,
2013-02-05 09:32:00,21.4,10.4,29.84,WSW,248,0.0,0.0,62,0.00,CLR,,0.00,WeatherDisplay:10.37,2013-02-05 14:32:00,
2013-02-05 09:35:00,21.6,10.5,29.84,SSW,202,0.0,0.0,62,0.00,CLR,,0.00,WeatherDisplay:10.37,2013-02-05 14:35:00,
2013-02-05 09:37:00,21.7,10.0,29.78,WSW,248,0.0,0.0,60,0.00,CLR,,0.00,WeatherDisplay:10.37,2013-02-05 14:37:00,
2013-02-05 09:40:00,21.6,9.8,29.78,SSW,202,0.0,0.0,60,0.00,CLR,,0.00,WeatherDisplay:10.37,2013-02-05 14:40:00,
2013-02-05 09:43:00,21.4,9.3,29.78,SSW,202,0.0,0.0,59,0.00,CLR,,0.00,WeatherDisplay:10.37,2013-02-05 14:43:00,
2013-02-05 09:45:00,22.1,10.3,29.78,SSW,202,0.0,0.0,60,0.00,CLR,,0.00,WeatherDisplay:10.37,2013-02-05 14:45:00,
2013-02-05 09:48:00,22.1,9.9,29.78,WSW,248,0.0,0.0,59,0.00,CLR,,0.00,WeatherDisplay:10.37,2013-02-05 14:48:00,
2013-02-05 09:50:00,22.6,10.8,29.78,SSW,202,0.0,0.0,60,0.00,CLR,,0.00,WeatherDisplay:10.37,2013-02-05 14:50:00,
2013-02-05 09:53:00,22.8,10.6,29.81,WSW,248,0.0,0.0,59,0.00,CLR,,0.00,WeatherDisplay:10.37,2013-02-05 14:53:00,
2013-02-05 09:55:00,22.8,9.8,29.81,SSW,202,0.0,0.0,57,0.00,CLR,,0.00,WeatherDisplay:10.37,2013-02-05 14:55:00,
2013-02-05 09:56:00,23.0,10.0,29.81,SW,225,0.0,0.0,57,0.00,CLR,,0.00,WeatherDisplay:10.37,2013-02-05 14:56:00,
2013-02-05 09:58:00,23.2,9.8,29.81,WSW,248,0.0,0.0,56,0.00,CLR,,0.00,WeatherDisplay:10.37,2013-02-05 14:58:00,
2013-02-05 10:00:00,23.5,10.1,29.81,SSW,202,0.0,0.0,56,0.00,CLR,,0.00,WeatherDisplay:10.37,2013-02-05 15:00:00,
2013-02-05 10:01:00,23.4,10.0,29.81,WNW,292,0.0,0.0,56,0.00,CLR,,0.00,WeatherDisplay:10.37,2013-02-05 15:01:00,
2013-02-05 10:03:00,23.5,9.7,29.81,SW,225,0.0,0.0,55,0.00,CLR,,0.00,WeatherDisplay:10.37,2013-02-05 15:03:00,
2013-02-05 10:05:00,23.2,8.1,29.81,SW,225,0.0,0.0,52,0.00,CLR,,0.00,WeatherDisplay:10.37,2013-02-05 15:05:00,
2013-02-05 10:06:00,23.4,8.7,29.81,SSW,202,0.0,0.0,53,0.00,CLR,,0.00,WeatherDisplay:10.37,2013-02-05 15:06:00,
2013-02-05 10:08:00,23.4,8.3,29.81,SSW,202,0.0,0.0,52,0.00,CLR,,0.00,WeatherDisplay:10.37,2013-02-05 15:08:00,
2013-02-05 10:10:00,23.5,8.5,29.81,South,180,0.0,0.0,52,0.00,CLR,,0.00,WeatherDisplay:10.37,2013-02-05 15:10:00,
2013-02-05 10:11:00,23.5,8.5,29.81,SSW,202,0.0,0.0,52,0.00,CLR,,0.00,WeatherDisplay:10.37,2013-02-05 15:11:00,
2013-02-05 10:13:00,23.4,7.9,29.81,SSW,202,0.0,0.0,51,0.00,CLR,,0.00,WeatherDisplay:10.37,2013-02-05 15:13:00,
2013-02-05 10:15:00,23.5,8.5,29.81,SSW,202,0.0,0.0,52,0.00,CLR,,0.00,WeatherDisplay:10.37,2013-02-05 15:15:00,
2013-02-05 10:16:00,23.4,7.9,29.81,SW,225,0.0,0.0,51,0.00,CLR,,0.00,WeatherDisplay:10.37,2013-02-05 15:16:00,
2013-02-05 10:19:00,23.4,8.3,29.81,SSW,202,0.0,0.0,52,0.00,CLR,,0.00,WeatherDisplay:10.37,2013-02-05 15:19:00,
2013-02-05 10:20:00,23.7,8.6,29.81,SSW,202,0.0,0.0,52,0.00,CLR,,0.00,WeatherDisplay:10.37,2013-02-05 15:20:00,
2013-02-05 10:21:00,23.9,9.2,29.81,SSW,202,0.0,0.0,53,0.00,CLR,,0.00,WeatherDisplay:10.37,2013-02-05 15:21:00,
2013-02-05 10:24:00,24.4,9.7,29.81,SSW,202,0.0,0.0,53,0.00,CLR,,0.00,WeatherDisplay:10.37,2013-02-05 15:24:00,
2013-02-05 10:26:00,24.3,9.1,29.81,SSW,202,0.0,0.0,52,0.00,CLR,,0.00,WeatherDisplay:10.37,2013-02-05 15:26:00,
2013-02-05 10:29:00,24.4,9.3,29.81,WSW,248,0.0,0.0,52,0.00,CLR,,0.00,WeatherDisplay:10.37,2013-02-05 15:29:00,
2013-02-05 10:31:00,25.2,10.0,29.81,SSW,202,0.0,0.0,52,0.00,CLR,,0.00,WeatherDisplay:10.37,2013-02-05 15:31:00,
2013-02-05 10:34:00,24.6,8.6,29.81,SSW,202,0.0,0.0,50,0.00,CLR,,0.00,WeatherDisplay:10.37,2013-02-05 15:34:00,
2013-02-05 10:36:00,24.4,8.0,29.81,SSW,202,0.0,0.0,49,0.00,CLR,,0.00,WeatherDisplay:10.37,2013-02-05 15:36:00,
2013-02-05 10:39:00,24.4,8.4,29.81,SSW,202,0.0,0.0,50,0.00,CLR,,0.00,WeatherDisplay:10.37,2013-02-05 15:39:00,
2013-02-05 10:41:00,24.8,9.2,29.81,West,270,0.0,0.0,51,0.00,CLR,,0.00,WeatherDisplay:10.37,2013-02-05 15:41:00,
2013-02-05 10:42:00,25.0,8.9,29.81,West,270,0.0,0.0,50,0.00,CLR,,0.00,WeatherDisplay:10.37,2013-02-05 15:42:00,
2013-02-05 10:44:00,24.4,7.5,29.81,SSW,202,0.0,0.0,48,0.00,CLR,,0.00,WeatherDisplay:10.37,2013-02-05 15:44:00,
2013-02-05 10:46:00,25.3,8.4,29.81,SSW,202,0.0,0.0,48,0.00,CLR,,0.00,WeatherDisplay:10.37,2013-02-05 15:46:00,
2013-02-05 10:47:00,25.3,8.4,29.81,SW,225,0.0,0.0,48,0.00,CLR,,0.00,WeatherDisplay:10.37,2013-02-05 15:47:00,
2013-02-05 10:49:00,25.5,8.5,29.81,WNW,292,0.0,0.0,48,0.00,CLR,,0.00,WeatherDisplay:10.37,2013-02-05 15:49:00,
2013-02-05 10:51:00,26.1,9.0,29.81,SSE,158,0.0,0.0,48,0.00,CLR,,0.00,WeatherDisplay:10.37,2013-02-05 15:51:00,
2013-02-05 10:52:00,26.1,9.0,29.81,SSE,158,0.0,0.0,48,0.00,CLR,,0.00,WeatherDisplay:10.37,2013-02-05 15:52:00,
2013-02-05 10:55:00,27.0,9.9,29.81,WNW,292,0.0,0.0,48,0.00,CLR,,0.00,WeatherDisplay:10.37,2013-02-05 15:55:00,
2013-02-05 10:56:00,27.3,9.7,29.81,SSW,202,0.0,0.0,47,0.00,CLR,,0.00,WeatherDisplay:10.37,2013-02-05 15:56:00,
2013-02-05 10:57:00,27.3,9.7,29.81,SSW,202,0.0,0.0,47,0.00,CLR,,0.00,WeatherDisplay:10.37,2013-02-05 15:57:00,
2013-02-05 11:00:00,27.9,10.2,29.81,SSW,202,0.0,0.0,47,0.00,CLR,,0.00,WeatherDisplay:10.37,2013-02-05 16:00:00,
2013-02-05 11:01:00,28.2,10.5,29.81,SSE,158,0.0,0.0,47,0.00,CLR,,0.00,WeatherDisplay:10.37,2013-02-05 16:01:00,
2013-02-05 11:02:00,28.6,10.9,29.81,West,270,0.0,0.0,47,0.00,CLR,,0.00,WeatherDisplay:10.37,2013-02-05 16:02:00,
2013-02-05 11:05:00,27.7,8.1,29.81,WSW,248,1.1,0.0,43,0.00,CLR,,0.00,WeatherDisplay:10.37,2013-02-05 16:05:00,
2013-02-05 11:06:00,27.9,8.2,29.81,WSW,248,0.0,0.0,43,0.00,CLR,,0.00,WeatherDisplay:10.37,2013-02-05 16:06:00,
2013-02-05 11:07:00,27.9,8.2,29.81,SW,225,0.0,0.0,43,0.00,CLR,,0.00,WeatherDisplay:10.37,2013-02-05 16:07:00,
2013-02-05 11:10:00,28.0,8.9,29.81,SSW,202,0.0,0.0,44,0.00,CLR,,0.00,WeatherDisplay:10.37,2013-02-05 16:10:00,
2013-02-05 11:11:00,27.7,8.1,29.81,SSW,202,0.0,0.0,43,0.00,CLR,,0.00,WeatherDisplay:10.37,2013-02-05 16:11:00,
2013-02-05 11:12:00,27.7,8.1,29.81,SSW,202,0.0,0.0,43,0.00,CLR,,0.00,WeatherDisplay:10.37,2013-02-05 16:12:00,
2013-02-05 11:15:00,27.7,8.1,29.81,WNW,292,0.0,0.0,43,0.00,CLR,,0.00,WeatherDisplay:10.37,2013-02-05 16:15:00,
2013-02-05 11:17:00,28.2,8.6,29.81,SSW,202,0.0,0.0,43,0.00,CLR,,0.00,WeatherDisplay:10.37,2013-02-05 16:17:00,
2013-02-05 11:18:00,28.4,8.7,29.81,SSW,202,0.0,0.0,43,0.00,CLR,,0.00,WeatherDisplay:10.37,2013-02-05 16:18:00,
2013-02-05 11:20:00,29.3,10.1,29.81,SSW,202,0.0,0.0,44,0.00,CLR,,0.00,WeatherDisplay:10.37,2013-02-05 16:20:00,
2013-02-05 11:22:00,29.5,9.7,29.81,SSE,158,0.0,0.0,43,0.00,CLR,,0.00,WeatherDisplay:10.37,2013-02-05 16:22:00,
2013-02-05 11:23:00,29.5,9.7,29.81,SSW,202,0.0,0.0,43,0.00,CLR,,0.00,WeatherDisplay:10.37,2013-02-05 16:23:00,
2013-02-05 11:25:00,29.5,9.2,29.81,SSW,202,0.0,0.0,42,0.00,CLR,,0.00,WeatherDisplay:10.37,2013-02-05 16:25:00,
2013-02-05 11:27:00,29.5,8.6,29.81,WSW,248,0.0,0.0,41,0.00,CLR,,0.00,WeatherDisplay:10.37,2013-02-05 16:27:00,
2013-02-05 11:28:00,29.5,8.6,29.81,SW,225,0.0,0.0,41,0.00,CLR,,0.00,WeatherDisplay:10.37,2013-02-05 16:28:00,
2013-02-05 11:29:00,29.7,9.3,29.81,SW,225,0.0,0.0,42,0.00,CLR,,0.00,WeatherDisplay:10.37,2013-02-05 16:29:00,
2013-02-05 11:30:00,29.3,8.5,29.81,WNW,292,0.0,0.0,41,0.00,CLR,,0.00,WeatherDisplay:10.37,2013-02-05 16:30:00,
2013-02-05 11:32:00,29.5,8.6,29.81,WSW,248,0.0,0.0,41,0.00,CLR,,0.00,WeatherDisplay:10.37,2013-02-05 16:32:00,
2013-02-05 11:33:00,29.7,8.8,29.81,SSE,158,0.0,0.0,41,0.00,CLR,,0.00,WeatherDisplay:10.37,2013-02-05 16:33:00,
2013-02-05 11:34:00,29.7,8.8,29.81,WSW,248,0.0,0.0,41,0.00,CLR,,0.00,WeatherDisplay:10.37,2013-02-05 16:34:00,
2013-02-05 11:35:00,29.3,8.5,29.81,SSW,202,0.0,0.0,41,0.00,CLR,,0.00,WeatherDisplay:10.37,2013-02-05 16:35:00,
2013-02-05 11:37:00,28.6,7.8,29.78,SSW,202,0.0,0.0,41,0.00,CLR,,0.00,WeatherDisplay:10.37,2013-02-05 16:37:00,
2013-02-05 11:38:00,28.4,7.7,29.78,SSW,202,0.0,0.0,41,0.00,CLR,,0.00,WeatherDisplay:10.37,2013-02-05 16:38:00,
2013-02-05 11:39:00,27.9,7.2,29.78,South,180,0.0,0.0,41,0.00,CLR,,0.00,WeatherDisplay:10.37,2013-02-05 16:39:00,
2013-02-05 11:40:00,27.9,7.2,29.78,SSW,202,0.0,0.0,41,0.00,CLR,,0.00,WeatherDisplay:10.37,2013-02-05 16:40:00,
2013-02-05 11:43:00,27.9,7.7,29.78,SW,225,0.0,0.0,42,0.00,CLR,,0.00,WeatherDisplay:10.37,2013-02-05 16:43:00,
2013-02-05 11:45:00,27.9,7.7,29.78,South,180,0.0,0.0,42,0.00,CLR,,0.00,WeatherDisplay:10.37,2013-02-05 16:45:00,
2013-02-05 11:48:00,28.6,8.4,29.78,WSW,248,0.0,0.0,42,0.00,CLR,,0.00,WeatherDisplay:10.37,2013-02-05 16:48:00,
2013-02-05 11:49:00,28.8,8.5,29.78,WSW,248,0.0,0.0,42,0.00,CLR,,0.00,WeatherDisplay:10.37,2013-02-05 16:49:00,
2013-02-05 11:50:00,29.3,9.0,29.78,NNW,338,0.0,0.0,42,0.00,CLR,,0.00,WeatherDisplay:10.37,2013-02-05 16:50:00,
2013-02-05 11:53:00,30.4,9.5,29.78,WSW,248,0.0,0.0,41,0.00,CLR,,0.00,WeatherDisplay:10.37,2013-02-05 16:53:00,
2013-02-05 11:54:00,30.6,9.6,29.78,WNW,292,0.0,0.0,41,0.00,CLR,,0.00,WeatherDisplay:10.37,2013-02-05 16:54:00,
2013-02-05 11:55:00,31.1,10.1,29.78,WNW,292,0.0,0.0,41,0.00,CLR,,0.00,WeatherDisplay:10.37,2013-02-05 16:55:00,
2013-02-05 11:58:00,31.5,9.9,29.78,SW,225,0.0,0.0,40,0.00,CLR,,0.00,WeatherDisplay:10.37,2013-02-05 16:58:00,
2013-02-05 11:59:00,31.3,10.3,29.78,South,180,0.0,0.0,41,0.00,CLR,,0.00,WeatherDisplay:10.37,2013-02-05 16:59:00,
2013-02-05 12:00:00,31.5,10.4,29.78,WSW,248,0.0,0.0,41,0.00,CLR,,0.00,WeatherDisplay:10.37,2013-02-05 17:00:00,
2013-02-05 12:03:00,31.8,10.2,29.78,SSE,158,0.0,0.0,40,0.00,CLR,,0.00,WeatherDisplay:10.37,2013-02-05 17:03:00,
2013-02-05 12:04:00,32.2,10.5,29.78,SSE,158,0.0,0.0,40,0.00,CLR,,0.00,WeatherDisplay:10.37,2013-02-05 17:04:00,
2013-02-05 12:05:00,32.4,11.2,29.78,South,180,0.0,0.0,41,0.00,CLR,,0.00,WeatherDisplay:10.37,2013-02-05 17:05:00,
2013-02-05 12:06:00,32.4,11.2,29.78,South,180,0.0,0.0,41,0.00,CLR,,0.00,WeatherDisplay:10.37,2013-02-05 17:06:00,
2013-02-05 12:08:00,31.6,10.0,29.75,SSW,202,0.0,0.0,40,0.00,CLR,,0.00,WeatherDisplay:10.37,2013-02-05 17:08:00,
2013-02-05 12:10:00,31.5,9.9,29.75,WSW,248,0.0,0.0,40,0.00,CLR,,0.00,WeatherDisplay:10.37,2013-02-05 17:10:00,
2013-02-05 12:11:00,31.5,9.3,29.75,WNW,292,0.0,0.0,39,0.00,CLR,,0.00,WeatherDisplay:10.37,2013-02-05 17:11:00,
2013-02-05 12:13:00,31.1,7.8,29.75,NNW,338,1.1,0.0,37,0.00,CLR,,0.00,WeatherDisplay:10.37,2013-02-05 17:13:00,
2013-02-05 12:15:00,30.7,8.1,29.75,WNW,292,0.0,0.0,38,0.00,CLR,,0.00,WeatherDisplay:10.37,2013-02-05 17:15:00,
2013-02-05 12:16:00,31.1,9.0,29.75,NNE,22,0.0,0.0,39,0.00,CLR,,0.00,WeatherDisplay:10.37,2013-02-05 17:16:00,
2013-02-05 12:18:00,30.7,8.7,29.75,WSW,248,0.0,0.0,39,0.00,CLR,,0.00,WeatherDisplay:10.37,2013-02-05 17:18:00,
2013-02-05 12:20:00,30.7,8.7,29.75,WNW,292,1.1,0.0,39,0.00,CLR,,0.00,WeatherDisplay:10.37,2013-02-05 17:20:00,
2013-02-05 12:21:00,31.1,9.6,29.75,WSW,248,0.0,0.0,40,0.00,CLR,,0.00,WeatherDisplay:10.37,2013-02-05 17:21:00,
2013-02-05 12:23:00,31.1,9.0,29.75,NNW,338,0.0,0.0,39,0.00,CLR,,0.00,WeatherDisplay:10.37,2013-02-05 17:23:00,
2013-02-05 12:25:00,30.4,8.3,29.75,SW,225,0.0,0.0,39,0.00,CLR,,0.00,WeatherDisplay:10.37,2013-02-05 17:25:00,
2013-02-05 12:26:00,30.2,8.2,29.75,SSE,158,0.0,0.0,39,0.00,CLR,,0.00,WeatherDisplay:10.37,2013-02-05 17:26:00,
2013-02-05 12:28:00,30.4,8.9,29.75,WNW,292,0.0,0.0,40,0.00,CLR,,0.00,WeatherDisplay:10.37,2013-02-05 17:28:00,
2013-02-05 12:30:00,30.6,9.1,29.75,West,270,0.0,0.0,40,0.00,CLR,,0.00,WeatherDisplay:10.37,2013-02-05 17:30:00,
2013-02-05 12:31:00,30.4,8.9,29.75,SSW,202,0.0,0.0,40,0.00,CLR,,0.00,WeatherDisplay:10.37,2013-02-05 17:31:00,
2013-02-05 12:33:00,30.0,9.1,29.75,SW,225,0.0,0.0,41,0.00,CLR,,0.00,WeatherDisplay:10.37,2013-02-05 17:33:00,
2013-02-05 12:35:00,30.2,9.3,29.75,WNW,292,0.0,0.0,41,0.00,CLR,,0.00,WeatherDisplay:10.37,2013-02-05 17:35:00,
2013-02-05 12:36:00,30.2,9.3,29.75,West,270,0.0,0.0,41,0.00,CLR,,0.00,WeatherDisplay:10.37,2013-02-05 17:36:00,
2013-02-05 12:39:00,30.0,9.1,29.75,NNW,338,0.0,0.0,41,0.00,CLR,,0.00,WeatherDisplay:10.37,2013-02-05 17:39:00,
2013-02-05 12:40:00,30.2,9.3,29.75,NNW,338,0.0,0.0,41,0.00,CLR,,0.00,WeatherDisplay:10.37,2013-02-05 17:40:00,
2013-02-05 12:41:00,30.4,8.9,29.75,NW,315,0.0,0.0,40,0.00,CLR,,0.00,WeatherDisplay:10.37,2013-02-05 17:41:00,
2013-02-05 12:44:00,30.9,9.4,29.75,SSW,202,0.0,0.0,40,0.00,CLR,,0.00,WeatherDisplay:10.37,2013-02-05 17:44:00,
2013-02-05 12:45:00,31.1,9.6,29.75,South,180,0.0,0.0,40,0.00,CLR,,0.00,WeatherDisplay:10.37,2013-02-05 17:45:00,
2013-02-05 12:46:00,31.3,10.3,29.75,WNW,292,0.0,0.0,41,0.00,CLR,,0.00,WeatherDisplay:10.37,2013-02-05 17:46:00,
2013-02-05 12:49:00,31.1,9.6,29.75,SW,225,0.0,0.0,40,0.00,CLR,,0.00,WeatherDisplay:10.37,2013-02-05 17:49:00,
2013-02-05 12:50:00,31.1,9.6,29.75,SSW,202,0.0,0.0,40,0.00,CLR,,0.00,WeatherDisplay:10.37,2013-02-05 17:50:00,
2013-02-05 12:51:00,31.8,10.8,29.75,WNW,292,0.0,0.0,41,0.00,CLR,,0.00,WeatherDisplay:10.37,2013-02-05 17:51:00,
2013-02-05 12:54:00,32.7,11.6,29.75,ESE,112,0.0,0.0,41,0.00,CLR,,0.00,WeatherDisplay:10.37,2013-02-05 17:54:00,
2013-02-05 12:56:00,32.5,10.9,29.75,ESE,112,0.0,0.0,40,0.00,CLR,,0.00,WeatherDisplay:10.37,2013-02-05 17:56:00,
2013-02-05 12:57:00,32.5,10.9,29.75,SSE,158,0.0,0.0,40,0.00,CLR,,0.00,WeatherDisplay:10.37,2013-02-05 17:57:00,
2013-02-05 12:59:00,32.5,11.4,29.75,SSW,202,0.0,0.0,41,0.00,CLR,,0.00,WeatherDisplay:10.37,2013-02-05 17:59:00,
2013-02-05 13:01:00,32.5,11.4,29.75,SSW,202,0.0,0.0,41,0.00,CLR,,0.00,WeatherDisplay:10.37,2013-02-05 18:01:00,
2013-02-05 13:02:00,31.1,9.6,29.75,SSE,158,0.0,0.0,40,0.00,CLR,,0.00,WeatherDisplay:10.37,2013-02-05 18:02:00,
2013-02-05 13:04:00,31.5,9.9,29.75,NW,315,0.0,0.0,40,0.00,CLR,,0.00,WeatherDisplay:10.37,2013-02-05 18:04:00,
2013-02-05 13:06:00,31.5,9.9,29.75,WSW,248,0.0,0.0,40,0.00,CLR,,0.00,WeatherDisplay:10.37,2013-02-05 18:06:00,
2013-02-05 13:07:00,31.6,10.6,29.75,NNE,22,0.0,0.0,41,0.00,CLR,,0.00,WeatherDisplay:10.37,2013-02-05 18:07:00,
2013-02-05 13:09:00,32.9,11.7,29.75,SW,225,0.0,0.0,41,0.00,CLR,,0.00,WeatherDisplay:10.37,2013-02-05 18:09:00,
2013-02-05 13:11:00,32.7,10.4,29.75,West,270,0.0,0.0,39,0.00,CLR,,0.00,WeatherDisplay:10.37,2013-02-05 18:11:00,
2013-02-05 13:12:00,33.3,11.5,29.75,NW,315,0.0,0.0,40,0.00,CLR,,0.00,WeatherDisplay:10.37,2013-02-05 18:12:00,
2013-02-05 13:14:00,33.1,10.8,29.75,WNW,292,0.0,0.0,39,0.00,CLR,,0.00,WeatherDisplay:10.37,2013-02-05 18:14:00,
2013-02-05 13:16:00,33.4,11.7,29.75,NNE,22,0.0,0.0,40,0.00,CLR,,0.00,WeatherDisplay:10.37,2013-02-05 18:16:00,
2013-02-05 13:17:00,33.8,12.0,29.75,ENE,68,0.0,0.0,40,0.00,CLR,,0.00,WeatherDisplay:10.37,2013-02-05 18:17:00,
2013-02-05 13:19:00,33.8,10.8,29.75,ESE,112,0.0,0.0,38,0.00,CLR,,0.00,WeatherDisplay:10.37,2013-02-05 18:19:00,
2013-02-05 13:21:00,34.0,12.2,29.72,ESE,112,0.0,0.0,40,0.00,CLR,,0.00,WeatherDisplay:10.37,2013-02-05 18:21:00,
2013-02-05 13:22:00,34.0,12.2,29.72,ESE,112,0.0,0.0,40,0.00,CLR,,0.00,WeatherDisplay:10.37,2013-02-05 18:22:00,
2013-02-05 13:23:00,34.0,12.2,29.72,SSE,158,0.0,0.0,40,0.00,CLR,,0.00,WeatherDisplay:10.37,2013-02-05 18:23:00,
2013-02-05 13:24:00,34.0,12.2,29.72,SSE,158,0.0,0.0,40,0.00,CLR,,0.00,WeatherDisplay:10.37,2013-02-05 18:24:00,
2013-02-05 13:26:00,33.8,12.0,29.72,ENE,68,0.0,0.0,40,0.00,CLR,,0.00,WeatherDisplay:10.37,2013-02-05 18:26:00,
2013-02-05 13:27:00,34.3,12.5,29.72,North,0,0.0,0.0,40,0.00,CLR,,0.00,WeatherDisplay:10.37,2013-02-05 18:27:00,
2013-02-05 13:28:00,34.3,12.5,29.72,ENE,68,0.0,0.0,40,0.00,CLR,,0.00,WeatherDisplay:10.37,2013-02-05 18:28:00,
2013-02-05 13:29:00,34.5,12.1,29.72,ENE,68,0.0,0.0,39,0.00,CLR,,0.00,WeatherDisplay:10.37,2013-02-05 18:29:00,
2013-02-05 13:31:00,34.5,11.5,29.72,SW,225,0.0,0.0,38,0.00,CLR,,0.00,WeatherDisplay:10.37,2013-02-05 18:31:00,
2013-02-05 13:32:00,33.8,10.8,29.72,WSW,248,1.1,0.0,38,0.00,CLR,,0.00,WeatherDisplay:10.37,2013-02-05 18:32:00,
2013-02-05 13:33:00,33.8,10.8,29.72,SW,225,1.1,0.0,38,0.00,CLR,,0.00,WeatherDisplay:10.37,2013-02-05 18:33:00,
2013-02-05 13:34:00,33.3,10.4,29.72,SW,225,0.0,0.0,38,0.00,CLR,,0.00,WeatherDisplay:10.37,2013-02-05 18:34:00,
2013-02-05 13:37:00,33.1,10.8,29.72,SE,135,0.0,0.0,39,0.00,CLR,,0.00,WeatherDisplay:10.37,2013-02-05 18:37:00,
2013-02-05 13:38:00,32.7,10.4,29.72,NNW,338,0.0,0.0,39,0.00,CLR,,0.00,WeatherDisplay:10.37,2013-02-05 18:38:00,
2013-02-05 13:39:00,33.1,11.3,29.72,ESE,112,0.0,0.0,40,0.00,CLR,,0.00,WeatherDisplay:10.37,2013-02-05 18:39:00,
2013-02-05 13:42:00,32.5,10.3,29.72,South,180,0.0,0.0,39,0.00,CLR,,0.00,WeatherDisplay:10.37,2013-02-05 18:42:00,
2013-02-05 13:43:00,32.4,10.7,29.72,SSE,158,0.0,0.0,40,0.00,CLR,,0.00,WeatherDisplay:10.37,2013-02-05 18:43:00,
2013-02-05 13:44:00,32.2,10.5,29.72,SSW,202,0.0,0.0,40,0.00,CLR,,0.00,WeatherDisplay:10.37,2013-02-05 18:44:00,
2013-02-05 13:47:00,32.2,10.5,29.72,SSW,202,0.0,0.0,40,0.00,CLR,,0.00,WeatherDisplay:10.37,2013-02-05 18:47:00,
2013-02-05 13:48:00,32.4,10.7,29.72,SSW,202,0.0,0.0,40,0.00,CLR,,0.00,WeatherDisplay:10.37,2013-02-05 18:48:00,
2013-02-05 13:50:00,32.4,10.7,29.72,NW,315,0.0,0.0,40,0.00,CLR,,0.00,WeatherDisplay:10.37,2013-02-05 18:50:00,
2013-02-05 13:52:00,32.7,11.0,29.72,SSW,202,0.0,0.0,40,0.00,CLR,,0.00,WeatherDisplay:10.37,2013-02-05 18:52:00,
2013-02-05 13:53:00,32.5,10.9,29.72,West,270,0.0,0.0,40,0.00,CLR,,0.00,WeatherDisplay:10.37,2013-02-05 18:53:00,
2013-02-05 13:55:00,32.0,9.8,29.72,WNW,292,0.0,0.0,39,0.00,CLR,,0.00,WeatherDisplay:10.37,2013-02-05 18:55:00,
2013-02-05 13:57:00,31.8,10.2,29.72,WSW,248,0.0,0.0,40,0.00,CLR,,0.00,WeatherDisplay:10.37,2013-02-05 18:57:00,
2013-02-05 13:58:00,31.6,10.0,29.72,WNW,292,0.0,0.0,40,0.00,CLR,,0.00,WeatherDisplay:10.37,2013-02-05 18:58:00,
2013-02-05 13:59:00,31.8,10.2,29.72,WNW,292,0.0,0.0,40,0.00,CLR,,0.00,WeatherDisplay:10.37,2013-02-05 18:59:00,
2013-02-05 14:00:00,31.6,10.0,29.72,WNW,292,0.0,0.0,40,0.00,CLR,,0.00,WeatherDisplay:10.37,2013-02-05 19:00:00,
2013-02-05 14:02:00,31.8,10.2,29.72,SSW,202,0.0,0.0,40,0.00,CLR,,0.00,WeatherDisplay:10.37,2013-02-05 19:02:00,
2013-02-05 14:04:00,31.6,10.6,29.72,West,270,0.0,0.0,41,0.00,CLR,,0.00,WeatherDisplay:10.37,2013-02-05 19:04:00,
2013-02-05 14:05:00,31.6,10.6,29.72,WNW,292,0.0,0.0,41,0.00,CLR,,0.00,WeatherDisplay:10.37,2013-02-05 19:05:00,
2013-02-05 14:07:00,31.5,10.4,29.72,NNW,338,0.0,0.0,41,0.00,CLR,,0.00,WeatherDisplay:10.37,2013-02-05 19:07:00,
2013-02-05 14:09:00,31.5,10.4,29.72,West,270,0.0,0.0,41,0.00,CLR,,0.00,WeatherDisplay:10.37,2013-02-05 19:09:00,
2013-02-05 14:10:00,31.1,10.1,29.72,WSW,248,0.0,0.0,41,0.00,CLR,,0.00,WeatherDisplay:10.37,2013-02-05 19:10:00,
2013-02-05 14:12:00,31.3,10.3,29.72,SE,135,0.0,0.0,41,0.00,CLR,,0.00,WeatherDisplay:10.37,2013-02-05 19:12:00,
2013-02-05 14:14:00,32.2,11.6,29.72,SSW,202,0.0,0.0,42,0.00,CLR,,0.00,WeatherDisplay:10.37,2013-02-05 19:14:00,
2013-02-05 14:15:00,31.8,10.8,29.72,SSW,202,0.0,0.0,41,0.00,CLR,,0.00,WeatherDisplay:10.37,2013-02-05 19:15:00,
2013-02-05 14:17:00,31.3,10.3,29.72,SSW,202,0.0,0.0,41,0.00,CLR,,0.00,WeatherDisplay:10.37,2013-02-05 19:17:00,
2013-02-05 14:19:00,31.3,10.3,29.72,WNW,292,0.0,0.0,41,0.00,CLR,,0.00,WeatherDisplay:10.37,2013-02-05 19:19:00,
2013-02-05 14:20:00,31.3,10.8,29.72,WNW,292,0.0,0.0,42,0.00,CLR,,0.00,WeatherDisplay:10.37,2013-02-05 19:20:00,
2013-02-05 14:22:00,31.8,10.8,29.69,WSW,248,0.0,0.0,41,0.00,CLR,,0.00,WeatherDisplay:10.37,2013-02-05 19:22:00,
2013-02-05 14:24:00,32.0,10.9,29.69,North,0,0.0,0.0,41,0.00,CLR,,0.00,WeatherDisplay:10.37,2013-02-05 19:24:00,
2013-02-05 14:25:00,32.2,11.1,29.69,NNE,22,0.0,0.0,41,0.00,CLR,,0.00,WeatherDisplay:10.37,2013-02-05 19:25:00,
2013-02-05 14:27:00,31.8,10.8,29.69,West,270,0.0,0.0,41,0.00,CLR,,0.00,WeatherDisplay:10.37,2013-02-05 19:27:00,
2013-02-05 14:29:00,31.6,10.6,29.69,WNW,292,0.0,0.0,41,0.00,CLR,,0.00,WeatherDisplay:10.37,2013-02-05 19:29:00,
2013-02-05 14:30:00,31.5,10.4,29.69,WNW,292,0.0,0.0,41,0.00,CLR,,0.00,WeatherDisplay:10.37,2013-02-05 19:30:00,
2013-02-05 14:32:00,30.7,9.8,29.69,WSW,248,0.0,0.0,41,0.00,CLR,,0.00,WeatherDisplay:10.37,2013-02-05 19:32:00,
2013-02-05 14:34:00,30.7,9.8,29.69,WNW,292,0.0,0.0,41,0.00,CLR,,0.00,WeatherDisplay:10.37,2013-02-05 19:34:00,
2013-02-05 14:35:00,30.7,9.8,29.69,SSE,158,0.0,0.0,41,0.00,CLR,,0.00,WeatherDisplay:10.37,2013-02-05 19:35:00,
2013-02-05 14:37:00,31.1,10.1,29.69,SSW,202,0.0,0.0,41,0.00,CLR,,0.00,WeatherDisplay:10.37,2013-02-05 19:37:00,
2013-02-05 14:39:00,30.9,10.5,29.69,WNW,292,0.0,0.0,42,0.00,CLR,,0.00,WeatherDisplay:10.37,2013-02-05 19:39:00,
2013-02-05 14:40:00,30.9,10.5,29.69,WNW,292,0.0,0.0,42,0.00,CLR,,0.00,WeatherDisplay:10.37,2013-02-05 19:40:00,
2013-02-05 14:42:00,31.3,10.8,29.69,SW,225,0.0,0.0,42,0.00,CLR,,0.00,WeatherDisplay:10.37,2013-02-05 19:42:00,
2013-02-05 14:44:00,31.5,11.0,29.69,WNW,292,0.0,0.0,42,0.00,CLR,,0.00,WeatherDisplay:10.37,2013-02-05 19:44:00,
2013-02-05 14:45:00,31.6,11.1,29.69,WSW,248,0.0,0.0,42,0.00,CLR,,0.00,WeatherDisplay:10.37,2013-02-05 19:45:00,
2013-02-05 14:48:00,31.3,10.3,29.69,WNW,292,0.0,0.0,41,0.00,CLR,,0.00,WeatherDisplay:10.37,2013-02-05 19:48:00,
2013-02-05 14:49:00,31.3,10.3,29.69,WSW,248,0.0,0.0,41,0.00,CLR,,0.00,WeatherDisplay:10.37,2013-02-05 19:49:00,
2013-02-05 14:50:00,31.1,10.1,29.69,West,270,0.0,0.0,41,0.00,CLR,,0.00,WeatherDisplay:10.37,2013-02-05 19:50:00,
2013-02-05 14:53:00,31.5,11.0,29.69,ENE,68,0.0,0.0,42,0.00,CLR,,0.00,WeatherDisplay:10.37,2013-02-05 19:53:00,
2013-02-05 14:54:00,31.6,11.1,29.69,NNE,22,0.0,0.0,42,0.00,CLR,,0.00,WeatherDisplay:10.37,2013-02-05 19:54:00,
2013-02-05 14:55:00,31.6,11.1,29.69,NNW,338,0.0,0.0,42,0.00,CLR,,0.00,WeatherDisplay:10.37,2013-02-05 19:55:00,
2013-02-05 14:56:00,31.6,11.1,29.69,SSW,202,0.0,0.0,42,0.00,CLR,,0.00,WeatherDisplay:10.37,2013-02-05 19:56:00,
2013-02-05 14:58:00,31.6,11.1,29.69,West,270,0.0,0.0,42,0.00,CLR,,0.00,WeatherDisplay:10.37,2013-02-05 19:58:00,
2013-02-05 14:59:00,31.5,10.4,29.69,NW,315,0.0,0.0,41,0.00,CLR,,0.00,WeatherDisplay:10.37,2013-02-05 19:59:00,
2013-02-05 15:00:00,31.5,10.4,29.69,NW,315,0.0,0.0,41,0.00,CLR,,0.00,WeatherDisplay:10.37,2013-02-05 20:00:00,
2013-02-05 15:01:00,30.9,9.9,29.69,NW,315,0.0,0.0,41,0.00,CLR,,0.00,WeatherDisplay:10.37,2013-02-05 20:01:00,
2013-02-05 15:03:00,30.6,9.6,29.69,NE,45,0.0,0.0,41,0.00,CLR,,0.00,WeatherDisplay:10.37,2013-02-05 20:03:00,
2013-02-05 15:05:00,30.4,9.5,29.69,WSW,248,0.0,0.0,41,0.00,CLR,,0.00,WeatherDisplay:10.37,2013-02-05 20:05:00,
2013-02-05 15:06:00,30.2,9.8,29.69,West,270,0.0,0.0,42,0.00,CLR,,0.00,WeatherDisplay:10.37,2013-02-05 20:06:00,
2013-02-05 15:08:00,30.4,10.0,29.69,West,270,0.0,0.0,42,0.00,CLR,,0.00,WeatherDisplay:10.37,2013-02-05 20:08:00,
2013-02-05 15:10:00,30.2,9.8,29.69,WSW,248,0.0,0.0,42,0.00,CLR,,0.00,WeatherDisplay:10.37,2013-02-05 20:10:00,
2013-02-05 15:11:00,30.2,9.8,29.69,WSW,248,0.0,0.0,42,0.00,CLR,,0.00,WeatherDisplay:10.37,2013-02-05 20:11:00,
2013-02-05 15:13:00,30.0,9.7,29.69,West,270,0.0,0.0,42,0.00,CLR,,0.00,WeatherDisplay:10.37,2013-02-05 20:13:00,
2013-02-05 15:15:00,30.2,9.8,29.69,WNW,292,0.0,0.0,42,0.00,CLR,,0.00,WeatherDisplay:10.37,2013-02-05 20:15:00,
2013-02-05 15:16:00,30.2,9.8,29.69,WNW,292,0.0,0.0,42,0.00,CLR,,0.00,WeatherDisplay:10.37,2013-02-05 20:16:00,
2013-02-05 15:18:00,30.4,10.0,29.69,West,270,0.0,0.0,42,0.00,CLR,,0.00,WeatherDisplay:10.37,2013-02-05 20:18:00,
2013-02-05 15:20:00,30.4,10.0,29.69,WNW,292,0.0,0.0,42,0.00,CLR,,0.00,WeatherDisplay:10.37,2013-02-05 20:20:00,
2013-02-05 15:21:00,30.4,10.0,29.69,WNW,292,0.0,0.0,42,0.00,CLR,,0.00,WeatherDisplay:10.37,2013-02-05 20:21:00,
2013-02-05 15:23:00,30.0,9.7,29.69,NW,315,0.0,0.0,42,0.00,CLR,,0.00,WeatherDisplay:10.37,2013-02-05 20:23:00,
2013-02-05 15:26:00,30.2,10.4,29.69,WNW,292,0.0,0.0,43,0.00,CLR,,0.00,WeatherDisplay:10.37,2013-02-05 20:26:00,
2013-02-05 15:28:00,30.2,10.4,29.69,SSE,158,0.0,0.0,43,0.00,CLR,,0.00,WeatherDisplay:10.37,2013-02-05 20:28:00,
2013-02-05 15:31:00,30.4,10.5,29.69,East,90,0.0,0.0,43,0.00,CLR,,0.00,WeatherDisplay:10.37,2013-02-05 20:31:00,
2013-02-05 15:33:00,30.0,10.2,29.69,West,270,0.0,0.0,43,0.00,CLR,,0.00,WeatherDisplay:10.37,2013-02-05 20:33:00,
2013-02-05 15:36:00,29.8,10.0,29.69,South,180,0.0,0.0,43,0.00,CLR,,0.00,WeatherDisplay:10.37,2013-02-05 20:36:00,
2013-02-05 15:38:00,29.7,9.9,29.69,WSW,248,0.0,0.0,43,0.00,CLR,,0.00,WeatherDisplay:10.37,2013-02-05 20:38:00,
2013-02-05 15:41:00,29.5,9.7,29.69,West,270,0.0,0.0,43,0.00,CLR,,0.00,WeatherDisplay:10.37,2013-02-05 20:41:00,
2013-02-05 15:44:00,29.3,9.5,29.69,NNE,22,0.0,0.0,43,0.00,CLR,,0.00,WeatherDisplay:10.37,2013-02-05 20:44:00,
2013-02-05 15:46:00,29.5,9.7,29.69,WSW,248,0.0,0.0,43,0.00,CLR,,0.00,WeatherDisplay:10.37,2013-02-05 20:46:00,
2013-02-05 15:47:00,29.5,10.2,29.69,SSW,202,0.0,0.0,44,0.00,CLR,,0.00,WeatherDisplay:10.37,2013-02-05 20:47:00,
2013-02-05 15:49:00,29.1,9.4,29.69,NW,315,0.0,0.0,43,0.00,CLR,,0.00,WeatherDisplay:10.37,2013-02-05 20:49:00,
2013-02-05 15:51:00,29.1,9.4,29.69,West,270,0.0,0.0,43,0.00,CLR,,0.00,WeatherDisplay:10.37,2013-02-05 20:51:00,
2013-02-05 15:52:00,29.1,9.4,29.69,West,270,0.0,0.0,43,0.00,CLR,,0.00,WeatherDisplay:10.37,2013-02-05 20:52:00,
2013-02-05 15:54:00,28.9,9.2,29.69,NW,315,0.0,0.0,43,0.00,CLR,,0.00,WeatherDisplay:10.37,2013-02-05 20:54:00,
2013-02-05 15:56:00,28.9,9.7,29.69,WNW,292,0.0,0.0,44,0.00,CLR,,0.00,WeatherDisplay:10.37,2013-02-05 20:56:00,
2013-02-05 15:57:00,28.8,9.6,29.69,West,270,0.0,0.0,44,0.00,CLR,,0.00,WeatherDisplay:10.37,2013-02-05 20:57:00,
2013-02-05 16:00:00,28.6,8.9,29.69,WSW,248,0.0,0.0,43,0.00,CLR,,0.00,WeatherDisplay:10.37,2013-02-05 21:00:00,
2013-02-05 16:01:00,28.6,9.4,29.69,West,270,0.0,0.0,44,0.00,CLR,,0.00,WeatherDisplay:10.37,2013-02-05 21:01:00,
2013-02-05 16:02:00,28.8,9.6,29.69,NE,45,0.0,0.0,44,0.00,CLR,,0.00,WeatherDisplay:10.37,2013-02-05 21:02:00,
2013-02-05 16:05:00,28.6,9.4,29.69,WSW,248,0.0,0.0,44,0.00,CLR,,0.00,WeatherDisplay:10.37,2013-02-05 21:05:00,
2013-02-05 16:06:00,28.6,9.4,29.69,WNW,292,0.0,0.0,44,0.00,CLR,,0.00,WeatherDisplay:10.37,2013-02-05 21:06:00,
2013-02-05 16:07:00,28.6,9.4,29.69,North,0,0.0,0.0,44,0.00,CLR,,0.00,WeatherDisplay:10.37,2013-02-05 21:07:00,
2013-02-05 16:08:00,28.6,9.4,29.69,North,0,0.0,0.0,44,0.00,CLR,,0.00,WeatherDisplay:10.37,2013-02-05 21:08:00,
2013-02-05 16:10:00,28.6,9.4,29.69,North,0,0.0,0.0,44,0.00,CLR,,0.00,WeatherDisplay:10.37,2013-02-05 21:10:00,
2013-02-05 16:11:00,28.6,9.9,29.69,WSW,248,0.0,0.0,45,0.00,CLR,,0.00,WeatherDisplay:10.37,2013-02-05 21:11:00,
2013-02-05 16:12:00,28.6,9.9,29.69,WNW,292,0.0,0.0,45,0.00,CLR,,0.00,WeatherDisplay:10.37,2013-02-05 21:12:00,
2013-02-05 16:13:00,28.6,9.9,29.69,NNW,338,0.0,0.0,45,0.00,CLR,,0.00,WeatherDisplay:10.37,2013-02-05 21:13:00,
2013-02-05 16:15:00,28.6,9.9,29.69,NNW,338,0.0,0.0,45,0.00,CLR,,0.00,WeatherDisplay:10.37,2013-02-05 21:15:00,
2013-02-05 16:16:00,28.6,9.9,29.69,NNE,22,0.0,0.0,45,0.00,CLR,,0.00,WeatherDisplay:10.37,2013-02-05 21:16:00,
2013-02-05 16:17:00,28.6,9.9,29.69,NE,45,0.0,0.0,45,0.00,CLR,,0.00,WeatherDisplay:10.37,2013-02-05 21:17:00,
2013-02-05 16:18:00,28.6,9.9,29.69,NE,45,0.0,0.0,45,0.00,CLR,,0.00,WeatherDisplay:10.37,2013-02-05 21:18:00,
2013-02-05 16:20:00,28.6,10.4,29.69,WNW,292,0.0,0.0,46,0.00,CLR,,0.00,WeatherDisplay:10.37,2013-02-05 21:20:00,
2013-02-05 16:22:00,28.6,10.4,29.69,NNW,338,0.0,0.0,46,0.00,CLR,,0.00,WeatherDisplay:10.37,2013-02-05 21:22:00,
2013-02-05 16:23:00,28.6,10.4,29.69,WNW,292,0.0,0.0,46,0.00,CLR,,0.00,WeatherDisplay:10.37,2013-02-05 21:23:00,
2013-02-05 16:25:00,28.4,10.2,29.69,NNE,22,0.0,0.0,46,0.00,CLR,,0.00,WeatherDisplay:10.37,2013-02-05 21:25:00,
2013-02-05 16:27:00,28.4,10.2,29.69,NNE,22,0.0,0.0,46,0.00,CLR,,0.00,WeatherDisplay:10.37,2013-02-05 21:27:00,
2013-02-05 16:28:00,28.6,10.4,29.69,NE,45,0.0,0.0,46,0.00,CLR,,0.00,WeatherDisplay:10.37,2013-02-05 21:28:00,
2013-02-05 16:30:00,28.4,10.2,29.69,North,0,0.0,0.0,46,0.00,CLR,,0.00,WeatherDisplay:10.37,2013-02-05 21:30:00,
2013-02-05 16:32:00,28.4,10.2,29.69,WNW,292,0.0,0.0,46,0.00,CLR,,0.00,WeatherDisplay:10.37,2013-02-05 21:32:00,
2013-02-05 16:33:00,28.4,10.2,29.69,WNW,292,0.0,0.0,46,0.00,CLR,,0.00,WeatherDisplay:10.37,2013-02-05 21:33:00,
2013-02-05 16:35:00,28.4,10.7,29.69,NNW,338,0.0,0.0,47,0.00,CLR,,0.00,WeatherDisplay:10.37,2013-02-05 21:35:00,
2013-02-05 16:37:00,28.2,10.1,29.66,NE,45,0.0,0.0,46,0.00,CLR,,0.00,WeatherDisplay:10.37,2013-02-05 21:37:00,
2013-02-05 16:39:00,28.2,10.5,29.66,NW,315,0.0,0.0,47,0.00,CLR,,0.00,WeatherDisplay:10.37,2013-02-05 21:39:00,
2013-02-05 16:41:00,28.2,10.5,29.66,WNW,292,0.0,0.0,47,0.00,CLR,,0.00,WeatherDisplay:10.37,2013-02-05 21:41:00,
2013-02-05 16:42:00,28.2,10.5,29.66,NNE,22,0.0,0.0,47,0.00,CLR,,0.00,WeatherDisplay:10.37,2013-02-05 21:42:00,
2013-02-05 16:46:00,28.0,10.4,29.66,ENE,68,0.0,0.0,47,0.00,CLR,,0.00,WeatherDisplay:10.37,2013-02-05 21:46:00,
2013-02-05 16:47:00,28.0,10.4,29.66,NW,315,0.0,0.0,47,0.00,CLR,,0.00,WeatherDisplay:10.37,2013-02-05 21:47:00,
2013-02-05 16:51:00,27.9,10.7,29.66,NW,315,0.0,0.0,48,0.00,CLR,,0.00,WeatherDisplay:10.37,2013-02-05 21:51:00,
2013-02-05 16:52:00,27.9,10.7,29.66,West,270,0.0,0.0,48,0.00,CLR,,0.00,WeatherDisplay:10.37,2013-02-05 21:52:00,
2013-02-05 16:56:00,27.9,10.7,29.66,WNW,292,0.0,0.0,48,0.00,CLR,,0.00,WeatherDisplay:10.37,2013-02-05 21:56:00,
2013-02-05 16:57:00,27.7,10.5,29.66,WSW,248,0.0,0.0,48,0.00,CLR,,0.00,WeatherDisplay:10.37,2013-02-05 21:57:00,
2013-02-05 17:01:00,27.9,10.7,29.66,NNE,22,0.0,0.0,48,0.00,CLR,,0.00,WeatherDisplay:10.37,2013-02-05 22:01:00,
2013-02-05 17:02:00,27.7,10.5,29.66,NNW,338,0.0,0.0,48,0.00,CLR,,0.00,WeatherDisplay:10.37,2013-02-05 22:02:00,
2013-02-05 17:03:00,27.7,10.5,29.66,NE,45,0.0,0.0,48,0.00,CLR,,0.00,WeatherDisplay:10.37,2013-02-05 22:03:00,
2013-02-05 17:06:00,27.7,11.0,29.69,NNE,22,0.0,0.0,49,0.00,CLR,,0.00,WeatherDisplay:10.37,2013-02-05 22:06:00,
2013-02-05 17:07:00,27.7,11.0,29.69,NNE,22,0.0,0.0,49,0.00,CLR,,0.00,WeatherDisplay:10.37,2013-02-05 22:07:00,
2013-02-05 17:08:00,27.7,11.0,29.69,North,0,0.0,0.0,49,0.00,CLR,,0.00,WeatherDisplay:10.37,2013-02-05 22:08:00,
2013-02-05 17:11:00,27.5,10.8,29.69,NNW,338,0.0,0.0,49,0.00,CLR,,0.00,WeatherDisplay:10.37,2013-02-05 22:11:00,
2013-02-05 17:12:00,27.5,10.8,29.69,West,270,0.0,0.0,49,0.00,CLR,,0.00,WeatherDisplay:10.37,2013-02-05 22:12:00,
2013-02-05 17:13:00,27.5,10.8,29.69,WNW,292,0.0,0.0,49,0.00,CLR,,0.00,WeatherDisplay:10.37,2013-02-05 22:13:00,
2013-02-05 17:16:00,27.3,11.1,29.69,NNW,338,0.0,0.0,50,0.00,CLR,,0.00,WeatherDisplay:10.37,2013-02-05 22:16:00,
2013-02-05 17:17:00,27.3,11.1,29.69,NNW,338,0.0,0.0,50,0.00,CLR,,0.00,WeatherDisplay:10.37,2013-02-05 22:17:00,
2013-02-05 17:18:00,27.3,11.1,29.69,East,90,0.0,0.0,50,0.00,CLR,,0.00,WeatherDisplay:10.37,2013-02-05 22:18:00,
2013-02-05 17:21:00,27.1,10.9,29.69,NNE,22,0.0,0.0,50,0.00,CLR,,0.00,WeatherDisplay:10.37,2013-02-05 22:21:00,
2013-02-05 17:22:00,27.1,10.9,29.69,NNW,338,0.0,0.0,50,0.00,CLR,,0.00,WeatherDisplay:10.37,2013-02-05 22:22:00,
2013-02-05 17:23:00,27.1,10.9,29.69,NNW,338,0.0,0.0,50,0.00,CLR,,0.00,WeatherDisplay:10.37,2013-02-05 22:23:00,
2013-02-05 17:26:00,27.0,10.8,29.69,North,0,0.0,0.0,50,0.00,CLR,,0.00,WeatherDisplay:10.37,2013-02-05 22:26:00,
2013-02-05 17:27:00,27.0,10.8,29.69,North,0,0.0,0.0,50,0.00,CLR,,0.00,WeatherDisplay:10.37,2013-02-05 22:27:00,
2013-02-05 17:28:00,27.0,10.8,29.69,North,0,0.0,0.0,50,0.00,CLR,,0.00,WeatherDisplay:10.37,2013-02-05 22:28:00,
2013-02-05 17:31:00,27.0,10.8,29.69,North,0,0.0,0.0,50,0.00,CLR,,0.00,WeatherDisplay:10.37,2013-02-05 22:31:00,
2013-02-05 17:32:00,27.0,11.2,29.69,North,0,0.0,0.0,51,0.00,CLR,,0.00,WeatherDisplay:10.37,2013-02-05 22:32:00,
2013-02-05 17:33:00,26.8,10.6,29.69,North,0,0.0,0.0,50,0.00,CLR,,0.00,WeatherDisplay:10.37,2013-02-05 22:33:00,
2013-02-05 17:36:00,26.8,11.0,29.69,North,0,0.0,0.0,51,0.00,CLR,,0.00,WeatherDisplay:10.37,2013-02-05 22:36:00,
2013-02-05 17:37:00,26.8,11.0,29.69,NNE,22,0.0,0.0,51,0.00,CLR,,0.00,WeatherDisplay:10.37,2013-02-05 22:37:00,
2013-02-05 17:38:00,26.8,11.0,29.69,NNE,22,0.0,0.0,51,0.00,CLR,,0.00,WeatherDisplay:10.37,2013-02-05 22:38:00,
2013-02-05 17:42:00,26.8,11.0,29.69,ENE,68,0.0,0.0,51,0.00,CLR,,0.00,WeatherDisplay:10.37,2013-02-05 22:42:00,
2013-02-05 17:43:00,26.6,11.3,29.69,NNW,338,0.0,0.0,52,0.00,CLR,,0.00,WeatherDisplay:10.37,2013-02-05 22:43:00,
2013-02-05 17:47:00,26.6,11.3,29.69,NNW,338,0.0,0.0,52,0.00,CLR,,0.00,WeatherDisplay:10.37,2013-02-05 22:47:00,
2013-02-05 17:48:00,26.6,11.3,29.69,NNW,338,0.0,0.0,52,0.00,CLR,,0.00,WeatherDisplay:10.37,2013-02-05 22:48:00,
2013-02-05 17:52:00,26.4,11.2,29.69,North,0,0.0,0.0,52,0.00,CLR,,0.00,WeatherDisplay:10.37,2013-02-05 22:52:00,
2013-02-05 17:53:00,26.4,11.2,29.69,NNW,338,0.0,0.0,52,0.00,CLR,,0.00,WeatherDisplay:10.37,2013-02-05 22:53:00,
2013-02-05 17:57:00,26.2,11.0,29.69,WNW,292,0.0,0.0,52,0.00,CLR,,0.00,WeatherDisplay:10.37,2013-02-05 22:57:00,
2013-02-05 17:58:00,26.4,11.2,29.69,NNE,22,0.0,0.0,52,0.00,CLR,,0.00,WeatherDisplay:10.37,2013-02-05 22:58:00,
2013-02-05 18:02:00,26.2,11.0,29.69,NNW,338,0.0,0.0,52,0.00,CLR,,0.00,WeatherDisplay:10.37,2013-02-05 23:02:00,
2013-02-05 18:03:00,26.2,11.0,29.69,NNE,22,0.0,0.0,52,0.00,CLR,,0.00,WeatherDisplay:10.37,2013-02-05 23:03:00,
2013-02-05 18:07:00,26.2,11.4,29.69,NE,45,0.0,0.0,53,0.00,CLR,,0.00,WeatherDisplay:10.37,2013-02-05 23:07:00,
2013-02-05 18:08:00,26.4,11.6,29.69,West,270,0.0,0.0,53,0.00,CLR,,0.00,WeatherDisplay:10.37,2013-02-05 23:08:00,
2013-02-05 18:12:00,26.4,11.6,29.69,WNW,292,0.0,0.0,53,0.00,CLR,,0.00,WeatherDisplay:10.37,2013-02-05 23:12:00,
2013-02-05 18:13:00,26.4,11.6,29.69,SSW,202,0.0,0.0,53,0.00,CLR,,0.00,WeatherDisplay:10.37,2013-02-05 23:13:00,
2013-02-05 18:17:00,26.4,11.6,29.69,NNE,22,0.0,0.0,53,0.00,CLR,,0.00,WeatherDisplay:10.37,2013-02-05 23:17:00,
2013-02-05 18:18:00,26.6,11.7,29.69,NNE,22,0.0,0.0,53,0.00,CLR,,0.00,WeatherDisplay:10.37,2013-02-05 23:18:00,
2013-02-05 18:23:00,26.6,11.7,29.69,NNW,338,0.0,0.0,53,0.00,CLR,,0.00,WeatherDisplay:10.37,2013-02-05 23:23:00,
2013-02-05 18:28:00,26.6,11.7,29.69,NNW,338,0.0,0.0,53,0.00,CLR,,0.00,WeatherDisplay:10.37,2013-02-05 23:28:00,
2013-02-05 18:33:00,26.6,11.7,29.69,NNW,338,0.0,0.0,53,0.00,CLR,,0.00,WeatherDisplay:10.37,2013-02-05 23:33:00,
2013-02-05 18:38:00,26.8,11.9,29.69,NNE,22,0.0,0.0,53,0.00,CLR,,0.00,WeatherDisplay:10.37,2013-02-05 23:38:00,
2013-02-05 18:39:00,26.8,11.9,29.69,NNE,22,0.0,0.0,53,0.00,CLR,,0.00,WeatherDisplay:10.37,2013-02-05 23:39:00,
2013-02-05 18:43:00,26.8,11.9,29.69,NNW,338,0.0,0.0,53,0.00,CLR,,0.00,WeatherDisplay:10.37,2013-02-05 23:43:00,
2013-02-05 18:44:00,26.8,11.9,29.69,NNW,338,0.0,0.0,53,0.00,CLR,,0.00,WeatherDisplay:10.37,2013-02-05 23:44:00,
2013-02-05 18:48:00,26.8,12.3,29.69,ENE,68,0.0,0.0,54,0.00,CLR,,0.00,WeatherDisplay:10.37,2013-02-05 23:48:00,
2013-02-05 18:49:00,26.8,12.3,29.69,NE,45,0.0,0.0,54,0.00,CLR,,0.00,WeatherDisplay:10.37,2013-02-05 23:49:00,
2013-02-05 18:53:00,26.6,12.2,29.69,ENE,68,0.0,0.0,54,0.00,CLR,,0.00,WeatherDisplay:10.37,2013-02-05 23:53:00,
2013-02-05 18:54:00,26.6,12.2,29.69,ENE,68,0.0,0.0,54,0.00,CLR,,0.00,WeatherDisplay:10.37,2013-02-05 23:54:00,
2013-02-05 18:58:00,26.6,12.2,29.69,ENE,68,0.0,0.0,54,0.00,CLR,,0.00,WeatherDisplay:10.37,2013-02-05 23:58:00,
2013-02-05 18:59:00,26.6,12.2,29.69,ENE,68,0.0,0.0,54,0.00,CLR,,0.00,WeatherDisplay:10.37,2013-02-05 23:59:00,
2013-02-05 19:03:00,26.6,12.2,29.69,NNE,22,0.0,0.0,54,0.00,CLR,,0.00,WeatherDisplay:10.37,2013-02-06 00:03:00,
2013-02-05 19:04:00,26.6,12.2,29.69,NNE,22,0.0,0.0,54,0.00,CLR,,0.00,WeatherDisplay:10.37,2013-02-06 00:04:00,
2013-02-05 19:08:00,26.6,12.6,29.72,North,0,0.0,0.0,55,0.00,CLR,,0.00,WeatherDisplay:10.37,2013-02-06 00:08:00,
2013-02-05 19:09:00,26.6,12.6,29.72,NE,45,0.0,0.0,55,0.00,CLR,,0.00,WeatherDisplay:10.37,2013-02-06 00:09:00,
2013-02-05 19:13:00,26.4,12.4,29.72,ENE,68,0.0,0.0,55,0.00,CLR,,0.00,WeatherDisplay:10.37,2013-02-06 00:13:00,
2013-02-05 19:14:00,26.4,12.4,29.72,NNE,22,0.0,0.0,55,0.00,CLR,,0.00,WeatherDisplay:10.37,2013-02-06 00:14:00,
2013-02-05 19:18:00,26.2,12.2,29.72,NNE,22,0.0,0.0,55,0.00,CLR,,0.00,WeatherDisplay:10.37,2013-02-06 00:18:00,
2013-02-05 19:19:00,26.2,12.2,29.72,NE,45,0.0,0.0,55,0.00,CLR,,0.00,WeatherDisplay:10.37,2013-02-06 00:19:00,
2013-02-05 19:23:00,26.2,12.2,29.72,NE,45,0.0,0.0,55,0.00,CLR,,0.00,WeatherDisplay:10.37,2013-02-06 00:23:00,
2013-02-05 19:24:00,26.2,12.2,29.72,ENE,68,0.0,0.0,55,0.00,CLR,,0.00,WeatherDisplay:10.37,2013-02-06 00:24:00,
2013-02-05 19:25:00,26.1,12.1,29.72,ENE,68,0.0,0.0,55,0.00,CLR,,0.00,WeatherDisplay:10.37,2013-02-06 00:25:00,
2013-02-05 19:28:00,26.1,12.1,29.72,ENE,68,0.0,0.0,55,0.00,CLR,,0.00,WeatherDisplay:10.37,2013-02-06 00:28:00,
2013-02-05 19:29:00,26.1,12.1,29.72,ENE,68,0.0,0.0,55,0.00,CLR,,0.00,WeatherDisplay:10.37,2013-02-06 00:29:00,
2013-02-05 19:30:00,26.1,12.1,29.72,ENE,68,0.0,0.0,55,0.00,CLR,,0.00,WeatherDisplay:10.37,2013-02-06 00:30:00,
2013-02-05 19:33:00,26.1,12.1,29.72,ENE,68,0.0,0.0,55,0.00,CLR,,0.00,WeatherDisplay:10.37,2013-02-06 00:33:00,
2013-02-05 19:34:00,26.1,12.1,29.72,ENE,68,0.0,0.0,55,0.00,CLR,,0.00,WeatherDisplay:10.37,2013-02-06 00:34:00,
2013-02-05 19:35:00,26.1,12.1,29.72,ENE,68,0.0,0.0,55,0.00,CLR,,0.00,WeatherDisplay:10.37,2013-02-06 00:35:00,
2013-02-05 19:38:00,26.1,12.1,29.72,ENE,68,0.0,0.0,55,0.00,CLR,,0.00,WeatherDisplay:10.37,2013-02-06 00:38:00,
2013-02-05 19:39:00,26.1,12.1,29.72,ENE,68,0.0,0.0,55,0.00,CLR,,0.00,WeatherDisplay:10.37,2013-02-06 00:39:00,
2013-02-05 19:40:00,26.1,12.1,29.72,ENE,68,0.0,0.0,55,0.00,CLR,,0.00,WeatherDisplay:10.37,2013-02-06 00:40:00,
2013-02-05 19:43:00,25.9,11.9,29.72,ENE,68,0.0,0.0,55,0.00,CLR,,0.00,WeatherDisplay:10.37,2013-02-06 00:43:00,
2013-02-05 19:44:00,25.9,11.9,29.72,ENE,68,0.0,0.0,55,0.00,CLR,,0.00,WeatherDisplay:10.37,2013-02-06 00:44:00,
2013-02-05 19:45:00,25.9,11.9,29.72,ENE,68,0.0,0.0,55,0.00,CLR,,0.00,WeatherDisplay:10.37,2013-02-06 00:45:00,
2013-02-05 19:48:00,25.7,11.7,29.72,ENE,68,0.0,0.0,55,0.00,CLR,,0.00,WeatherDisplay:10.37,2013-02-06 00:48:00,
2013-02-05 19:49:00,25.7,11.7,29.72,ENE,68,0.0,0.0,55,0.00,CLR,,0.00,WeatherDisplay:10.37,2013-02-06 00:49:00,
2013-02-05 19:50:00,25.7,11.7,29.72,ENE,68,0.0,0.0,55,0.00,CLR,,0.00,WeatherDisplay:10.37,2013-02-06 00:50:00,
2013-02-05 19:53:00,25.7,11.7,29.72,NE,45,0.0,0.0,55,0.00,CLR,,0.00,WeatherDisplay:10.37,2013-02-06 00:53:00,
2013-02-05 19:54:00,25.7,11.7,29.72,NE,45,0.0,0.0,55,0.00,CLR,,0.00,WeatherDisplay:10.37,2013-02-06 00:54:00,
2013-02-05 19:55:00,25.7,11.7,29.72,NE,45,0.0,0.0,55,0.00,CLR,,0.00,WeatherDisplay:10.37,2013-02-06 00:55:00,
2013-02-05 19:58:00,25.5,11.6,29.72,NE,45,0.0,0.0,55,0.00,CLR,,0.00,WeatherDisplay:10.37,2013-02-06 00:58:00,
2013-02-05 19:59:00,25.5,11.6,29.72,NE,45,0.0,0.0,55,0.00,CLR,,0.00,WeatherDisplay:10.37,2013-02-06 00:59:00,
2013-02-05 20:00:00,25.5,11.6,29.72,NE,45,0.0,0.0,55,0.00,CLR,,0.00,WeatherDisplay:10.37,2013-02-06 01:00:00,
2013-02-05 20:03:00,25.3,11.4,29.72,NE,45,0.0,0.0,55,0.00,CLR,,0.00,WeatherDisplay:10.37,2013-02-06 01:03:00,
2013-02-05 20:04:00,25.3,11.4,29.72,NE,45,0.0,0.0,55,0.00,CLR,,0.00,WeatherDisplay:10.37,2013-02-06 01:04:00,
2013-02-05 20:05:00,25.3,11.4,29.72,NE,45,0.0,0.0,55,0.00,CLR,,0.00,WeatherDisplay:10.37,2013-02-06 01:05:00,
2013-02-05 20:08:00,25.2,11.2,29.72,NE,45,0.0,0.0,55,0.00,CLR,,0.00,WeatherDisplay:10.37,2013-02-06 01:08:00,
2013-02-05 20:09:00,25.0,11.1,29.72,NE,45,0.0,0.0,55,0.00,CLR,,0.00,WeatherDisplay:10.37,2013-02-06 01:09:00,
2013-02-05 20:10:00,25.0,11.1,29.72,NE,45,0.0,0.0,55,0.00,CLR,,0.00,WeatherDisplay:10.37,2013-02-06 01:10:00,
2013-02-05 20:13:00,25.0,11.1,29.72,NE,45,0.0,0.0,55,0.00,CLR,,0.00,WeatherDisplay:10.37,2013-02-06 01:13:00,
2013-02-05 20:14:00,25.0,11.1,29.72,NE,45,0.0,0.0,55,0.00,CLR,,0.00,WeatherDisplay:10.37,2013-02-06 01:14:00,
2013-02-05 20:15:00,25.0,11.1,29.72,NE,45,0.0,0.0,55,0.00,CLR,,0.00,WeatherDisplay:10.37,2013-02-06 01:15:00,
2013-02-05 20:18:00,25.2,11.6,29.72,NNE,22,0.0,0.0,56,0.00,CLR,,0.00,WeatherDisplay:10.37,2013-02-06 01:18:00,
2013-02-05 20:19:00,25.2,11.6,29.72,NNE,22,0.0,0.0,56,0.00,CLR,,0.00,WeatherDisplay:10.37,2013-02-06 01:19:00,
2013-02-05 20:20:00,25.2,11.6,29.72,NNE,22,0.0,0.0,56,0.00,CLR,,0.00,WeatherDisplay:10.37,2013-02-06 01:20:00,
2013-02-05 20:24:00,25.2,11.6,29.72,NNE,22,0.0,0.0,56,0.00,CLR,,0.00,WeatherDisplay:10.37,2013-02-06 01:24:00,
2013-02-05 20:25:00,25.2,11.6,29.72,NNE,22,0.0,0.0,56,0.00,CLR,,0.00,WeatherDisplay:10.37,2013-02-06 01:25:00,
2013-02-05 20:29:00,25.2,11.6,29.72,NNE,22,0.0,0.0,56,0.00,CLR,,0.00,WeatherDisplay:10.37,2013-02-06 01:29:00,
2013-02-05 20:30:00,25.2,11.6,29.72,NE,45,0.0,0.0,56,0.00,CLR,,0.00,WeatherDisplay:10.37,2013-02-06 01:30:00,
2013-02-05 20:34:00,25.2,11.6,29.72,North,0,0.0,0.0,56,0.00,CLR,,0.00,WeatherDisplay:10.37,2013-02-06 01:34:00,
2013-02-05 20:35:00,25.2,11.6,29.72,NNE,22,0.0,0.0,56,0.00,CLR,,0.00,WeatherDisplay:10.37,2013-02-06 01:35:00,
2013-02-05 20:39:00,25.0,11.5,29.72,NNE,22,0.0,0.0,56,0.00,CLR,,0.00,WeatherDisplay:10.37,2013-02-06 01:39:00,
2013-02-05 20:40:00,25.0,11.5,29.72,NNE,22,0.0,0.0,56,0.00,CLR,,0.00,WeatherDisplay:10.37,2013-02-06 01:40:00,
2013-02-05 20:44:00,24.6,11.1,29.72,NNE,22,0.0,0.0,56,0.00,CLR,,0.00,WeatherDisplay:10.37,2013-02-06 01:44:00,
2013-02-05 20:45:00,24.6,11.1,29.72,NNE,22,0.0,0.0,56,0.00,CLR,,0.00,WeatherDisplay:10.37,2013-02-06 01:45:00,
2013-02-05 20:46:00,24.6,11.1,29.72,NNE,22,0.0,0.0,56,0.00,CLR,,0.00,WeatherDisplay:10.37,2013-02-06 01:46:00,
2013-02-05 20:49:00,24.6,11.5,29.72,NNE,22,0.0,0.0,57,0.00,CLR,,0.00,WeatherDisplay:10.37,2013-02-06 01:49:00,
2013-02-05 20:50:00,24.4,11.4,29.72,NNE,22,0.0,0.0,57,0.00,CLR,,0.00,WeatherDisplay:10.37,2013-02-06 01:50:00,
2013-02-05 20:51:00,24.4,11.4,29.72,NNE,22,0.0,0.0,57,0.00,CLR,,0.00,WeatherDisplay:10.37,2013-02-06 01:51:00,
2013-02-05 20:54:00,24.4,11.4,29.72,North,0,0.0,0.0,57,0.00,CLR,,0.00,WeatherDisplay:10.37,2013-02-06 01:54:00,
2013-02-05 20:55:00,24.4,11.4,29.72,NNE,22,0.0,0.0,57,0.00,CLR,,0.00,WeatherDisplay:10.37,2013-02-06 01:55:00,
2013-02-05 20:56:00,24.4,11.4,29.72,NNE,22,0.0,0.0,57,0.00,CLR,,0.00,WeatherDisplay:10.37,2013-02-06 01:56:00,
2013-02-05 20:59:00,24.4,11.4,29.72,NNE,22,0.0,0.0,57,0.00,CLR,,0.00,WeatherDisplay:10.37,2013-02-06 01:59:00,
2013-02-05 21:00:00,24.4,11.4,29.72,NNE,22,0.0,0.0,57,0.00,CLR,,0.00,WeatherDisplay:10.37,2013-02-06 02:00:00,
2013-02-05 21:01:00,24.4,11.4,29.72,NNE,22,0.0,0.0,57,0.00,CLR,,0.00,WeatherDisplay:10.37,2013-02-06 02:01:00,
2013-02-05 21:04:00,24.4,11.4,29.72,North,0,0.0,0.0,57,0.00,CLR,,0.00,WeatherDisplay:10.37,2013-02-06 02:04:00,
2013-02-05 21:06:00,24.4,11.4,29.72,NNW,338,0.0,0.0,57,0.00,CLR,,0.00,WeatherDisplay:10.37,2013-02-06 02:06:00,
2013-02-05 21:09:00,24.6,11.5,29.72,NNW,338,0.0,0.0,57,0.00,CLR,,0.00,WeatherDisplay:10.37,2013-02-06 02:09:00,
2013-02-05 21:11:00,24.6,11.9,29.72,NNE,22,0.0,0.0,58,0.00,CLR,,0.00,WeatherDisplay:10.37,2013-02-06 02:11:00,
2013-02-05 21:14:00,24.8,12.1,29.72,WNW,292,0.0,0.0,58,0.00,CLR,,0.00,WeatherDisplay:10.37,2013-02-06 02:14:00,
2013-02-05 21:16:00,25.0,12.3,29.72,North,0,0.0,0.0,58,0.00,CLR,,0.00,WeatherDisplay:10.37,2013-02-06 02:16:00,
2013-02-05 21:19:00,25.0,12.3,29.72,North,0,0.0,0.0,58,0.00,CLR,,0.00,WeatherDisplay:10.37,2013-02-06 02:19:00,
2013-02-05 21:21:00,25.0,12.3,29.72,NNW,338,0.0,0.0,58,0.00,CLR,,0.00,WeatherDisplay:10.37,2013-02-06 02:21:00,
2013-02-05 21:24:00,25.0,12.3,29.72,WSW,248,0.0,0.0,58,0.00,CLR,,0.00,WeatherDisplay:10.37,2013-02-06 02:24:00,
2013-02-05 21:26:00,25.0,12.3,29.72,NNW,338,0.0,0.0,58,0.00,CLR,,0.00,WeatherDisplay:10.37,2013-02-06 02:26:00,
2013-02-05 21:29:00,25.0,12.3,29.72,NNW,338,0.0,0.0,58,0.00,CLR,,0.00,WeatherDisplay:10.37,2013-02-06 02:29:00,
2013-02-05 21:31:00,25.2,12.4,29.72,West,270,0.0,0.0,58,0.00,CLR,,0.00,WeatherDisplay:10.37,2013-02-06 02:31:00,
2013-02-05 21:34:00,25.2,12.4,29.72,NW,315,0.0,0.0,58,0.00,CLR,,0.00,WeatherDisplay:10.37,2013-02-06 02:34:00,
2013-02-05 21:36:00,25.0,12.3,29.72,NNE,22,0.0,0.0,58,0.00,CLR,,0.00,WeatherDisplay:10.37,2013-02-06 02:36:00,
2013-02-05 21:40:00,25.0,12.3,29.72,NW,315,0.0,0.0,58,0.00,CLR,,0.00,WeatherDisplay:10.37,2013-02-06 02:40:00,
2013-02-05 21:43:00,25.2,12.4,29.72,North,0,0.0,0.0,58,0.00,CLR,,0.00,WeatherDisplay:10.37,2013-02-06 02:43:00,
2013-02-05 21:45:00,25.2,12.4,29.72,North,0,0.0,0.0,58,0.00,CLR,,0.00,WeatherDisplay:10.37,2013-02-06 02:45:00,
2013-02-05 21:48:00,25.2,12.4,29.72,WNW,292,0.0,0.0,58,0.00,CLR,,0.00,WeatherDisplay:10.37,2013-02-06 02:48:00,
2013-02-05 21:50:00,25.3,13.0,29.72,NNW,338,0.0,0.0,59,0.00,CLR,,0.00,WeatherDisplay:10.37,2013-02-06 02:50:00,
2013-02-05 21:53:00,25.3,13.0,29.69,North,0,0.0,0.0,59,0.00,CLR,,0.00,WeatherDisplay:10.37,2013-02-06 02:53:00,
2013-02-05 21:55:00,25.3,12.6,29.69,NNE,22,0.0,0.0,58,0.00,CLR,,0.00,WeatherDisplay:10.37,2013-02-06 02:55:00,
2013-02-05 21:58:00,25.3,12.6,29.69,NNW,338,0.0,0.0,58,0.00,CLR,,0.00,WeatherDisplay:10.37,2013-02-06 02:58:00,
2013-02-05 22:00:00,25.3,12.6,29.69,NNW,338,0.0,0.0,58,0.00,CLR,,0.00,WeatherDisplay:10.37,2013-02-06 03:00:00,
2013-02-05 22:03:00,25.3,12.6,29.69,NNW,338,0.0,0.0,58,0.00,CLR,,0.00,WeatherDisplay:10.37,2013-02-06 03:03:00,
2013-02-05 22:04:00,25.3,12.6,29.69,NNW,338,0.0,0.0,58,0.00,CLR,,0.00,WeatherDisplay:10.37,2013-02-06 03:04:00,
2013-02-05 22:05:00,25.3,12.6,29.69,WSW,248,0.0,0.0,58,0.00,CLR,,0.00,WeatherDisplay:10.37,2013-02-06 03:05:00,
2013-02-05 22:08:00,25.3,12.6,29.72,North,0,0.0,0.0,58,0.00,CLR,,0.00,WeatherDisplay:10.37,2013-02-06 03:08:00,
2013-02-05 22:09:00,25.3,12.6,29.72,NW,315,0.0,0.0,58,0.00,CLR,,0.00,WeatherDisplay:10.37,2013-02-06 03:09:00,
2013-02-05 22:10:00,25.3,12.6,29.72,WNW,292,0.0,0.0,58,0.00,CLR,,0.00,WeatherDisplay:10.37,2013-02-06 03:10:00,
2013-02-05 22:13:00,25.3,12.6,29.72,North,0,0.0,0.0,58,0.00,CLR,,0.00,WeatherDisplay:10.37,2013-02-06 03:13:00,
2013-02-05 22:14:00,25.3,12.6,29.72,North,0,0.0,0.0,58,0.00,CLR,,0.00,WeatherDisplay:10.37,2013-02-06 03:14:00,
2013-02-05 22:15:00,25.3,13.0,29.72,NNE,22,0.0,0.0,59,0.00,CLR,,0.00,WeatherDisplay:10.37,2013-02-06 03:15:00,
2013-02-05 22:19:00,25.3,13.0,29.72,WNW,292,0.0,0.0,59,0.00,CLR,,0.00,WeatherDisplay:10.37,2013-02-06 03:19:00,
2013-02-05 22:20:00,25.3,13.0,29.72,NNW,338,0.0,0.0,59,0.00,CLR,,0.00,WeatherDisplay:10.37,2013-02-06 03:20:00,
2013-02-05 22:24:00,25.3,13.0,29.69,NW,315,0.0,0.0,59,0.00,CLR,,0.00,WeatherDisplay:10.37,2013-02-06 03:24:00,
2013-02-05 22:26:00,25.3,13.0,29.69,NNW,338,0.0,0.0,59,0.00,CLR,,0.00,WeatherDisplay:10.37,2013-02-06 03:26:00,
2013-02-05 22:29:00,25.3,13.0,29.69,NNW,338,0.0,0.0,59,0.00,CLR,,0.00,WeatherDisplay:10.37,2013-02-06 03:29:00,
2013-02-05 22:30:00,25.3,13.0,29.69,SW,225,0.0,0.0,59,0.00,CLR,,0.00,WeatherDisplay:10.37,2013-02-06 03:30:00,
2013-02-05 22:31:00,25.3,13.0,29.69,West,270,0.0,0.0,59,0.00,CLR,,0.00,WeatherDisplay:10.37,2013-02-06 03:31:00,
2013-02-05 22:34:00,25.2,12.8,29.69,WNW,292,0.0,0.0,59,0.00,CLR,,0.00,WeatherDisplay:10.37,2013-02-06 03:34:00,
2013-02-05 22:35:00,25.2,12.8,29.69,NNW,338,0.0,0.0,59,0.00,CLR,,0.00,WeatherDisplay:10.37,2013-02-06 03:35:00,
2013-02-05 22:36:00,25.0,12.7,29.69,NW,315,0.0,0.0,59,0.00,CLR,,0.00,WeatherDisplay:10.37,2013-02-06 03:36:00,
2013-02-05 22:39:00,25.0,13.0,29.69,WNW,292,0.0,0.0,60,0.00,CLR,,0.00,WeatherDisplay:10.37,2013-02-06 03:39:00,
2013-02-05 22:40:00,25.0,13.0,29.69,WNW,292,0.0,0.0,60,0.00,CLR,,0.00,WeatherDisplay:10.37,2013-02-06 03:40:00,
2013-02-05 22:41:00,25.0,13.4,29.69,WNW,292,0.0,0.0,61,0.00,CLR,,0.00,WeatherDisplay:10.37,2013-02-06 03:41:00,
2013-02-05 22:44:00,25.0,13.4,29.69,NNW,338,0.0,0.0,61,0.00,CLR,,0.00,WeatherDisplay:10.37,2013-02-06 03:44:00,
2013-02-05 22:45:00,25.0,13.4,29.69,NW,315,0.0,0.0,61,0.00,CLR,,0.00,WeatherDisplay:10.37,2013-02-06 03:45:00,
2013-02-05 22:47:00,25.0,13.8,29.69,West,270,0.0,0.0,62,0.00,CLR,,0.00,WeatherDisplay:10.37,2013-02-06 03:47:00,
2013-02-05 22:50:00,25.0,13.8,29.69,SW,225,0.0,0.0,62,0.00,CLR,,0.00,WeatherDisplay:10.37,2013-02-06 03:50:00,
2013-02-05 22:52:00,24.8,13.6,29.69,WNW,292,0.0,0.0,62,0.00,CLR,,0.00,WeatherDisplay:10.37,2013-02-06 03:52:00,
2013-02-05 22:55:00,24.8,14.0,29.69,WNW,292,0.0,0.0,63,0.00,CLR,,0.00,WeatherDisplay:10.37,2013-02-06 03:55:00,
2013-02-05 22:57:00,24.6,13.8,29.69,NNE,22,0.0,0.0,63,0.00,CLR,,0.00,WeatherDisplay:10.37,2013-02-06 03:57:00,
2013-02-05 23:00:00,24.4,13.6,29.69,WNW,292,0.0,0.0,63,0.00,CLR,,0.00,WeatherDisplay:10.37,2013-02-06 04:00:00,
2013-02-05 23:02:00,24.4,13.6,29.69,West,270,0.0,0.0,63,0.00,CLR,,0.00,WeatherDisplay:10.37,2013-02-06 04:02:00,
2013-02-05 23:05:00,24.4,13.6,29.69,WSW,248,0.0,0.0,63,0.00,CLR,,0.00,WeatherDisplay:10.37,2013-02-06 04:05:00,
2013-02-05 23:06:00,24.4,13.6,29.69,WNW,292,0.0,0.0,63,0.00,CLR,,0.00,WeatherDisplay:10.37,2013-02-06 04:06:00,
2013-02-05 23:07:00,24.4,13.6,29.69,West,270,0.0,0.0,63,0.00,CLR,,0.00,WeatherDisplay:10.37,2013-02-06 04:07:00,
2013-02-05 23:10:00,24.4,14.4,29.69,NNW,338,0.0,0.0,65,0.00,CLR,,0.00,WeatherDisplay:10.37,2013-02-06 04:10:00,
2013-02-05 23:11:00,24.4,14.4,29.69,NNE,22,0.0,0.0,65,0.00,CLR,,0.00,WeatherDisplay:10.37,2013-02-06 04:11:00,
2013-02-05 23:12:00,24.4,14.4,29.69,NW,315,0.0,0.0,65,0.00,CLR,,0.00,WeatherDisplay:10.37,2013-02-06 04:12:00,
2013-02-05 23:15:00,24.8,15.0,29.69,West,270,0.0,0.0,66,0.00,CLR,,0.00,WeatherDisplay:10.37,2013-02-06 04:15:00,
2013-02-05 23:16:00,24.8,15.0,29.69,West,270,0.0,0.0,66,0.00,CLR,,0.00,WeatherDisplay:10.37,2013-02-06 04:16:00,
2013-02-05 23:17:00,24.8,15.0,29.69,NW,315,0.0,0.0,66,0.00,CLR,,0.00,WeatherDisplay:10.37,2013-02-06 04:17:00,
2013-02-05 23:21:00,25.0,15.2,29.69,NNW,338,0.0,0.0,66,0.00,CLR,,0.00,WeatherDisplay:10.37,2013-02-06 04:21:00,
2013-02-05 23:23:00,25.2,15.7,29.69,NNW,338,0.0,0.0,67,0.00,CLR,,0.00,WeatherDisplay:10.37,2013-02-06 04:23:00,
2013-02-05 23:26:00,25.3,15.9,29.69,WNW,292,0.0,0.0,67,0.00,CLR,,0.00,WeatherDisplay:10.37,2013-02-06 04:26:00,
2013-02-05 23:28:00,25.3,15.9,29.69,WNW,292,0.0,0.0,67,0.00,CLR,,0.00,WeatherDisplay:10.37,2013-02-06 04:28:00,
2013-02-05 23:31:00,25.3,15.9,29.69,WNW,292,0.0,0.0,67,0.00,CLR,,0.00,WeatherDisplay:10.37,2013-02-06 04:31:00,
2013-02-05 23:33:00,25.5,16.4,29.69,NNW,338,0.0,0.0,68,0.00,CLR,,0.00,WeatherDisplay:10.37,2013-02-06 04:33:00,
2013-02-05 23:36:00,25.5,16.4,29.69,North,0,0.0,0.0,68,0.00,CLR,,0.00,WeatherDisplay:10.37,2013-02-06 04:36:00,
2013-02-05 23:37:00,25.7,16.6,29.69,NNE,22,0.0,0.0,68,0.00,CLR,,0.00,WeatherDisplay:10.37,2013-02-06 04:37:00,
2013-02-05 23:38:00,25.7,16.6,29.69,West,270,0.0,0.0,68,0.00,CLR,,0.00,WeatherDisplay:10.37,2013-02-06 04:38:00,
2013-02-05 23:41:00,25.7,16.6,29.69,NNE,22,0.0,0.0,68,0.00,CLR,,0.00,WeatherDisplay:10.37,2013-02-06 04:41:00,
2013-02-05 23:42:00,25.7,16.6,29.69,North,0,0.0,0.0,68,0.00,CLR,,0.00,WeatherDisplay:10.37,2013-02-06 04:42:00,
2013-02-05 23:43:00,25.9,16.8,29.69,WSW,248,0.0,0.0,68,0.00,CLR,,0.00,WeatherDisplay:10.37,2013-02-06 04:43:00,
2013-02-05 23:46:00,25.9,16.8,29.69,North,0,0.0,0.0,68,0.00,CLR,,0.00,WeatherDisplay:10.37,2013-02-06 04:46:00,
2013-02-05 23:47:00,25.9,16.8,29.69,West,270,0.0,0.0,68,0.00,CLR,,0.00,WeatherDisplay:10.37,2013-02-06 04:47:00,
2013-02-05 23:48:00,25.9,16.8,29.69,West,270,0.0,0.0,68,0.00,CLR,,0.00,WeatherDisplay:10.37,2013-02-06 04:48:00,
2013-02-05 23:51:00,26.1,16.9,29.69,NNW,338,0.0,0.0,68,0.00,CLR,,0.00,WeatherDisplay:10.37,2013-02-06 04:51:00,
2013-02-05 23:52:00,26.1,16.9,29.69,West,270,0.0,0.0,68,0.00,CLR,,0.00,WeatherDisplay:10.37,2013-02-06 04:52:00,
2013-02-05 23:53:00,26.1,16.9,29.69,West,270,0.0,0.0,68,0.00,CLR,,0.00,WeatherDisplay:10.37,2013-02-06 04:53:00,
2013-02-05 23:56:00,26.1,17.3,29.69,NNW,338,0.0,0.0,69,0.00,CLR,,0.00,WeatherDisplay:10.37,2013-02-06 04:56:00,
2013-02-05 23:57:00,26.1,17.3,29.69,WNW,292,0.0,0.0,69,0.00,CLR,,0.00,WeatherDisplay:10.37,2013-02-06 04:57:00,
2013-02-05 23:59:00,26.1,17.3,29.69,WNW,292,0.0,0.0,69,0.00,CLR,,0.00,WeatherDisplay:10.37,2013-02-06 04:59:00,